Wetterdaten: Montag, 17.01.2022
Datum Zeit Temp. Aussen Temp. o. S. Temp +5cm Feuchte Auss Luftdruck Regen Sonnenschein Regendauer Solar Windben Empfang
17.01.2022 00:00 4,4 C 3,9 C 3,3 C 99 % 1030,5 hPa 0,0 l/m 0 min 0 min 0 W/m 12,9 km/h (3 Bft) 97,87 %
17.01.2022 00:02 4,4 C 3,9 C 3,3 C 99 % 1030,5 hPa 0,0 l/m 0 min 0 min 0 W/m 16,1 km/h (3 Bft) 100,00 %
17.01.2022 00:04 4,4 C 3,9 C 3,3 C 99 % 1030,5 hPa 0,0 l/m 0 min 0 min 0 W/m 12,9 km/h (3 Bft) 100,00 %
17.01.2022 00:06 4,4 C 3,9 C 3,3 C 99 % 1030,5 hPa 0,0 l/m 0 min 2 min 0 W/m 16,1 km/h (3 Bft) 100,00 %
17.01.2022 00:08 4,4 C 3,9 C 3,3 C 99 % 1030,5 hPa 0,0 l/m 0 min 2 min 0 W/m 12,9 km/h (3 Bft) 97,87 %
17.01.2022 00:10 4,4 C 3,9 C 3,3 C 99 % 1030,6 hPa 0,0 l/m 0 min 2 min 0 W/m 22,5 km/h (4 Bft) 97,83 %
17.01.2022 00:12 4,4 C 3,9 C 3,3 C 99 % 1030,6 hPa 0,0 l/m 0 min 2 min 0 W/m 19,3 km/h (3 Bft) 95,74 %
17.01.2022 00:14 4,3 C 3,9 C 3,3 C 99 % 1030,6 hPa 0,2 l/m 0 min 0 min 0 W/m 12,9 km/h (3 Bft) 91,49 %
17.01.2022 00:16 4,3 C 3,9 C 3,3 C 98 % 1030,7 hPa 0,0 l/m 0 min 0 min 0 W/m 12,9 km/h (3 Bft) 93,62 %
17.01.2022 00:18 4,3 C 3,9 C 3,3 C 98 % 1030,6 hPa 0,0 l/m 0 min 0 min 0 W/m 19,3 km/h (3 Bft) 95,74 %
17.01.2022 00:20 4,3 C 3,9 C 3,3 C 98 % 1030,7 hPa 0,0 l/m 0 min 2 min 0 W/m 12,9 km/h (3 Bft) 93,62 %
17.01.2022 00:22 4,3 C 3,9 C 3,3 C 98 % 1030,7 hPa 0,0 l/m 0 min 2 min 0 W/m 19,3 km/h (3 Bft) 95,65 %
17.01.2022 00:24 4,3 C 3,9 C 3,3 C 98 % 1030,6 hPa 0,0 l/m 0 min 2 min 0 W/m 16,1 km/h (3 Bft) 95,74 %
17.01.2022 00:26 4,3 C 3,9 C 3,3 C 98 % 1030,7 hPa 0,0 l/m 0 min 0 min 0 W/m 9,7 km/h (2 Bft) 95,74 %
17.01.2022 00:28 4,3 C 3,9 C 3,3 C 98 % 1030,7 hPa 0,0 l/m 0 min 0 min 0 W/m 19,3 km/h (3 Bft) 95,74 %
17.01.2022 00:30 4,3 C 3,9 C 3,3 C 99 % 1030,7 hPa 0,2 l/m 0 min 2 min 0 W/m 12,9 km/h (3 Bft) 93,62 %
17.01.2022 00:32 4,3 C 3,9 C 3,3 C 99 % 1030,7 hPa 0,0 l/m 0 min 0 min 0 W/m 6,4 km/h (2 Bft) 95,65 %
17.01.2022 00:34 4,3 C 3,9 C 3,3 C 99 % 1030,7 hPa 0,0 l/m 0 min 0 min 0 W/m 12,9 km/h (3 Bft) 95,74 %
17.01.2022 00:36 4,3 C 3,9 C 3,3 C 99 % 1030,8 hPa 0,0 l/m 0 min 0 min 0 W/m 12,9 km/h (3 Bft) 93,62 %
17.01.2022 00:38 4,3 C 3,9 C 3,3 C 99 % 1030,7 hPa 0,0 l/m 0 min 0 min 0 W/m 12,9 km/h (3 Bft) 95,74 %
17.01.2022 00:40 4,3 C 3,9 C 3,3 C 99 % 1030,8 hPa 0,0 l/m 0 min 0 min 0 W/m 12,9 km/h (3 Bft) 93,62 %
17.01.2022 00:42 4,3 C 3,9 C 3,3 C 99 % 1030,8 hPa 0,0 l/m 0 min 0 min 0 W/m 12,9 km/h (3 Bft) 95,74 %
17.01.2022 00:44 4,3 C 3,9 C 3,3 C 99 % 1030,8 hPa 0,0 l/m 0 min 0 min 0 W/m 12,9 km/h (3 Bft) 93,62 %
17.01.2022 00:46 4,3 C 3,9 C 3,3 C 99 % 1030,7 hPa 0,0 l/m 0 min 0 min 0 W/m 16,1 km/h (3 Bft) 97,87 %
17.01.2022 00:48 4,3 C 3,9 C 3,3 C 99 % 1030,8 hPa 0,0 l/m 0 min 0 min 0 W/m 12,9 km/h (3 Bft) 95,65 %
17.01.2022 00:50 4,3 C 3,9 C 3,3 C 99 % 1030,8 hPa 0,0 l/m 0 min 0 min 0 W/m 9,7 km/h (2 Bft) 97,87 %
17.01.2022 00:52 4,3 C 3,9 C 3,3 C 99 % 1030,8 hPa 0,0 l/m 0 min 0 min 0 W/m 16,1 km/h (3 Bft) 95,74 %
17.01.2022 00:54 4,3 C 3,9 C 3,3 C 99 % 1030,8 hPa 0,0 l/m 0 min 0 min 0 W/m 12,9 km/h (3 Bft) 95,74 %
17.01.2022 00:56 4,3 C 3,9 C 3,3 C 99 % 1030,8 hPa 0,0 l/m 0 min 0 min 0 W/m 12,9 km/h (3 Bft) 95,74 %
17.01.2022 00:58 4,3 C 3,9 C 3,3 C 99 % 1030,8 hPa 0,0 l/m 0 min 0 min 0 W/m 9,7 km/h (2 Bft) 95,65 %
17.01.2022 01:00 4,3 C 3,9 C 3,3 C 99 % 1030,9 hPa 0,0 l/m 0 min 0 min 0 W/m 12,9 km/h (3 Bft) 95,74 %
17.01.2022 01:02 4,3 C 3,9 C 3,3 C 99 % 1030,9 hPa 0,0 l/m 0 min 0 min 0 W/m 12,9 km/h (3 Bft) 95,24 %
17.01.2022 01:04 4,4 C 3,9 C 3,3 C 99 % 1030,9 hPa 0,0 l/m 0 min 0 min 0 W/m 12,9 km/h (3 Bft) 97,87 %
17.01.2022 01:06 4,4 C 3,9 C 3,3 C 99 % 1030,9 hPa 0,0 l/m 0 min 0 min 0 W/m 6,4 km/h (2 Bft) 95,74 %
17.01.2022 01:08 4,3 C 3,9 C 3,3 C 99 % 1031,0 hPa 0,0 l/m 0 min 0 min 0 W/m 12,9 km/h (3 Bft) 95,74 %
17.01.2022 01:10 4,3 C 3,9 C 3,3 C 99 % 1031,0 hPa 0,0 l/m 0 min 0 min 0 W/m 9,7 km/h (2 Bft) 97,83 %
17.01.2022 01:12 4,3 C 3,9 C 3,3 C 99 % 1031,1 hPa 0,0 l/m 0 min 0 min 0 W/m 12,9 km/h (3 Bft) 97,87 %
17.01.2022 01:14 4,4 C 3,9 C 3,3 C 99 % 1031,1 hPa 0,0 l/m 0 min 0 min 0 W/m 12,9 km/h (3 Bft) 95,74 %
17.01.2022 01:16 4,4 C 3,9 C 3,3 C 99 % 1031,1 hPa 0,0 l/m 0 min 0 min 0 W/m 12,9 km/h (3 Bft) 97,87 %
17.01.2022 01:18 4,4 C 3,9 C 3,3 C 99 % 1031,1 hPa 0,0 l/m 0 min 0 min 0 W/m 9,7 km/h (2 Bft) 97,87 %
17.01.2022 01:20 4,4 C 3,9 C 3,3 C 99 % 1031,1 hPa 0,0 l/m 0 min 0 min 0 W/m 12,9 km/h (3 Bft) 97,87 %
17.01.2022 01:22 4,4 C 3,9 C 3,3 C 99 % 1031,2 hPa 0,0 l/m 0 min 0 min 0 W/m 16,1 km/h (3 Bft) 97,87 %
17.01.2022 01:24 4,4 C 3,9 C 3,3 C 99 % 1031,2 hPa 0,0 l/m 0 min 0 min 0 W/m 12,9 km/h (3 Bft) 97,87 %
17.01.2022 01:26 4,4 C 3,9 C 3,3 C 99 % 1031,2 hPa 0,0 l/m 0 min 0 min 0 W/m 9,7 km/h (2 Bft) 97,87 %
17.01.2022 01:28 4,4 C 3,9 C 3,3 C 99 % 1031,3 hPa 0,0 l/m 0 min 0 min 0 W/m 9,7 km/h (2 Bft) 95,74 %
17.01.2022 01:30 4,4 C 3,9 C 3,3 C 99 % 1031,3 hPa 0,0 l/m 0 min 0 min 0 W/m 16,1 km/h (3 Bft) 97,87 %
17.01.2022 01:32 4,4 C 3,9 C 3,3 C 99 % 1031,2 hPa 0,0 l/m 0 min 0 min 0 W/m 12,9 km/h (3 Bft) 97,87 %
17.01.2022 01:34 4,4 C 3,9 C 3,3 C 99 % 1031,3 hPa 0,0 l/m 0 min 0 min 0 W/m 6,4 km/h (2 Bft) 97,87 %
17.01.2022 01:36 4,4 C 3,9 C 3,3 C 99 % 1031,4 hPa 0,0 l/m 0 min 0 min 0 W/m 6,4 km/h (2 Bft) 97,87 %
17.01.2022 01:38 4,4 C 3,9 C 3,3 C 99 % 1031,3 hPa 0,0 l/m 0 min 0 min 0 W/m 6,4 km/h (2 Bft) 98,00 %
17.01.2022 01:40 4,4 C 3,9 C 3,3 C 99 % 1031,4 hPa 0,0 l/m 0 min 0 min 0 W/m 3,2 km/h (1 Bft) 97,87 %
17.01.2022 01:42 4,4 C 3,9 C 3,3 C 99 % 1031,4 hPa 0,0 l/m 0 min 0 min 0 W/m 12,9 km/h (3 Bft) 100,00 %
17.01.2022 01:44 4,4 C 3,9 C 3,9 C 99 % 1031,4 hPa 0,0 l/m 0 min 0 min 0 W/m 19,3 km/h (3 Bft) 100,00 %
17.01.2022 01:46 4,4 C 3,9 C 3,9 C 99 % 1031,4 hPa 0,0 l/m 0 min 0 min 0 W/m 12,9 km/h (3 Bft) 97,87 %
17.01.2022 01:48 4,4 C 3,9 C 3,3 C 99 % 1031,4 hPa 0,0 l/m 0 min 0 min 0 W/m 9,7 km/h (2 Bft) 97,87 %
17.01.2022 01:50 4,4 C 3,9 C 3,9 C 99 % 1031,3 hPa 0,0 l/m 0 min 0 min 0 W/m 6,4 km/h (2 Bft) 97,87 %
17.01.2022 01:52 4,5 C 3,9 C 3,9 C 99 % 1031,3 hPa 0,0 l/m 0 min 0 min 0 W/m 12,9 km/h (3 Bft) 100,00 %
17.01.2022 01:54 4,5 C 3,9 C 3,9 C 99 % 1031,3 hPa 0,0 l/m 0 min 0 min 0 W/m 6,4 km/h (2 Bft) 97,87 %
17.01.2022 01:56 4,5 C 3,9 C 3,9 C 99 % 1031,3 hPa 0,0 l/m 0 min 0 min 0 W/m 6,4 km/h (2 Bft) 97,83 %
17.01.2022 01:58 4,5 C 3,9 C 3,9 C 99 % 1031,3 hPa 0,0 l/m 0 min 0 min 0 W/m 6,4 km/h (2 Bft) 97,87 %
17.01.2022 02:00 4,5 C 3,9 C 3,9 C 99 % 1031,2 hPa 0,0 l/m 0 min 0 min 0 W/m 19,3 km/h (3 Bft) 100,00 %
17.01.2022 02:02 4,6 C 3,9 C 3,9 C 99 % 1031,2 hPa 0,0 l/m 0 min 0 min 0 W/m 9,7 km/h (2 Bft) 97,87 %
17.01.2022 02:04 4,5 C 3,9 C 3,9 C 99 % 1031,2 hPa 0,0 l/m 0 min 0 min 0 W/m 9,7 km/h (2 Bft) 100,00 %
17.01.2022 02:06 4,6 C 3,9 C 3,9 C 99 % 1031,2 hPa 0,0 l/m 0 min 0 min 0 W/m 12,9 km/h (3 Bft) 95,74 %
17.01.2022 02:08 4,6 C 3,9 C 3,9 C 99 % 1031,2 hPa 0,0 l/m 0 min 0 min 0 W/m 9,7 km/h (2 Bft) 97,83 %
17.01.2022 02:10 4,6 C 3,9 C 3,9 C 99 % 1031,3 hPa 0,0 l/m 0 min 0 min 0 W/m 16,1 km/h (3 Bft) 97,87 %
17.01.2022 02:12 4,6 C 3,9 C 3,9 C 99 % 1031,3 hPa 0,0 l/m 0 min 0 min 0 W/m 9,7 km/h (2 Bft) 95,74 %
17.01.2022 02:14 4,6 C 3,9 C 3,9 C 99 % 1031,5 hPa 0,0 l/m 0 min 0 min 0 W/m 6,4 km/h (2 Bft) 55,32 %
17.01.2022 02:16 4,6 C 3,9 C 3,9 C 99 % 1031,5 hPa 0,0 l/m 0 min 0 min 0 W/m 6,4 km/h (2 Bft) 97,87 %
17.01.2022 02:18 4,6 C 3,9 C 3,9 C 99 % 1031,6 hPa 0,0 l/m 0 min 0 min 0 W/m 12,9 km/h (3 Bft) 97,87 %
17.01.2022 02:20 4,6 C 3,9 C 3,9 C 99 % 1031,6 hPa 0,0 l/m 0 min 0 min 0 W/m 9,7 km/h (2 Bft) 95,65 %
17.01.2022 02:22 4,6 C 3,9 C 3,9 C 99 % 1031,6 hPa 0,0 l/m 0 min 0 min 0 W/m 6,4 km/h (2 Bft) 97,87 %
17.01.2022 02:24 4,6 C 3,9 C 3,9 C 99 % 1031,5 hPa 0,0 l/m 0 min 0 min 0 W/m 12,9 km/h (3 Bft) 97,87 %
17.01.2022 02:26 4,6 C 3,9 C 3,9 C 99 % 1031,5 hPa 0,0 l/m 0 min 0 min 0 W/m 9,7 km/h (2 Bft) 97,87 %
17.01.2022 02:28 4,6 C 3,9 C 3,9 C 99 % 1031,4 hPa 0,0 l/m 0 min 0 min 0 W/m 12,9 km/h (3 Bft) 97,87 %
17.01.2022 02:30 4,6 C 3,9 C 3,9 C 99 % 1031,3 hPa 0,0 l/m 0 min 0 min 0 W/m 9,7 km/h (2 Bft) 97,87 %
17.01.2022 02:32 4,6 C 3,9 C 3,9 C 99 % 1031,4 hPa 0,0 l/m 0 min 0 min 0 W/m 12,9 km/h (3 Bft) 97,83 %
17.01.2022 02:34 4,6 C 3,9 C 3,9 C 99 % 1031,2 hPa 0,0 l/m 0 min 0 min 0 W/m 12,9 km/h (3 Bft) 97,87 %
17.01.2022 02:36 4,6 C 3,9 C 3,9 C 99 % 1031,2 hPa 0,0 l/m 0 min 0 min 0 W/m 12,9 km/h (3 Bft) 97,87 %
17.01.2022 02:38 4,6 C 3,9 C 3,9 C 99 % 1031,2 hPa 0,0 l/m 0 min 0 min 0 W/m 12,9 km/h (3 Bft) 97,87 %
17.01.2022 02:41 4,6 C 3,9 C 3,9 C 99 % 1031,2 hPa 0,0 l/m 0 min 0 min 0 W/m 12,9 km/h (3 Bft) 97,14 %
17.01.2022 02:42 4,6 C 3,9 C 3,9 C 99 % 1031,2 hPa 0,0 l/m 0 min 0 min 0 W/m 6,4 km/h (2 Bft) 100,00 %
17.01.2022 02:44 4,6 C 3,9 C 3,9 C 99 % 1031,3 hPa 0,0 l/m 0 min 0 min 0 W/m 6,4 km/h (2 Bft) 100,00 %
17.01.2022 02:46 4,6 C 3,9 C 3,9 C 99 % 1031,3 hPa 0,0 l/m 0 min 0 min 0 W/m 12,9 km/h (3 Bft) 97,87 %
17.01.2022 02:48 4,6 C 3,9 C 3,9 C 99 % 1031,4 hPa 0,0 l/m 0 min 0 min 0 W/m 12,9 km/h (3 Bft) 100,00 %
17.01.2022 02:50 4,6 C 3,9 C 3,9 C 99 % 1031,4 hPa 0,0 l/m 0 min 0 min 0 W/m 12,9 km/h (3 Bft) 100,00 %
17.01.2022 02:52 4,6 C 3,9 C 3,9 C 99 % 1031,4 hPa 0,0 l/m 0 min 0 min 0 W/m 9,7 km/h (2 Bft) 100,00 %
17.01.2022 02:54 4,6 C 3,9 C 3,9 C 99 % 1031,4 hPa 0,0 l/m 0 min 0 min 0 W/m 12,9 km/h (3 Bft) 100,00 %
17.01.2022 02:56 4,6 C 3,9 C 3,9 C 99 % 1031,4 hPa 0,0 l/m 0 min 0 min 0 W/m 6,4 km/h (2 Bft) 100,00 %
17.01.2022 02:58 4,6 C 3,9 C 3,9 C 99 % 1031,5 hPa 0,0 l/m 0 min 0 min 0 W/m 16,1 km/h (3 Bft) 100,00 %
17.01.2022 03:00 4,7 C 3,9 C 3,9 C 99 % 1031,6 hPa 0,0 l/m 0 min 0 min 0 W/m 12,9 km/h (3 Bft) 100,00 %
17.01.2022 03:02 4,7 C 3,9 C 3,9 C 99 % 1031,7 hPa 0,0 l/m 0 min 0 min 0 W/m 6,4 km/h (2 Bft) 100,00 %
17.01.2022 03:04 4,7 C 3,9 C 3,9 C 99 % 1031,6 hPa 0,0 l/m 0 min 0 min 0 W/m 12,9 km/h (3 Bft) 100,00 %
17.01.2022 03:06 4,7 C 3,9 C 3,9 C 99 % 1031,6 hPa 0,0 l/m 0 min 0 min 0 W/m 6,4 km/h (2 Bft) 100,00 %
17.01.2022 03:08 4,7 C 3,9 C 3,9 C 99 % 1031,5 hPa 0,0 l/m 0 min 0 min 0 W/m 12,9 km/h (3 Bft) 97,87 %
17.01.2022 03:10 4,7 C 3,9 C 3,9 C 99 % 1031,5 hPa 0,0 l/m 0 min 0 min 0 W/m 12,9 km/h (3 Bft) 97,87 %
17.01.2022 03:12 4,7 C 4,4 C 3,9 C 99 % 1031,5 hPa 0,0 l/m 0 min 0 min 0 W/m 16,1 km/h (3 Bft) 97,87 %
17.01.2022 03:14 4,8 C 4,4 C 3,9 C 99 % 1031,4 hPa 0,0 l/m 0 min 0 min 0 W/m 12,9 km/h (3 Bft) 97,87 %
17.01.2022 03:16 4,8 C 4,4 C 3,9 C 99 % 1031,4 hPa 0,0 l/m 0 min 0 min 0 W/m 9,7 km/h (2 Bft) 97,87 %
17.01.2022 03:18 4,8 C 4,4 C 3,9 C 99 % 1031,4 hPa 0,0 l/m 0 min 0 min 0 W/m 12,9 km/h (3 Bft) 97,83 %
17.01.2022 03:20 4,8 C 4,4 C 3,9 C 99 % 1031,4 hPa 0,0 l/m 0 min 0 min 0 W/m 6,4 km/h (2 Bft) 95,74 %
17.01.2022 03:22 4,8 C 4,4 C 3,9 C 99 % 1031,4 hPa 0,0 l/m 0 min 0 min 0 W/m 12,9 km/h (3 Bft) 97,87 %
17.01.2022 03:24 4,8 C 4,4 C 3,9 C 99 % 1031,5 hPa 0,0 l/m 0 min 0 min 0 W/m 9,7 km/h (2 Bft) 95,74 %
17.01.2022 03:26 4,8 C 4,4 C 3,9 C 99 % 1031,5 hPa 0,0 l/m 0 min 0 min 0 W/m 9,7 km/h (2 Bft) 97,87 %
17.01.2022 03:28 4,8 C 4,4 C 3,9 C 99 % 1031,5 hPa 0,0 l/m 0 min 0 min 0 W/m 9,7 km/h (2 Bft) 97,87 %
17.01.2022 03:30 4,8 C 4,4 C 3,9 C 99 % 1031,4 hPa 0,0 l/m 0 min 0 min 0 W/m 9,7 km/h (2 Bft) 95,65 %
17.01.2022 03:32 4,8 C 4,4 C 3,9 C 99 % 1031,4 hPa 0,0 l/m 0 min 0 min 0 W/m 12,9 km/h (3 Bft) 97,22 %
17.01.2022 03:34 4,8 C 4,4 C 3,9 C 99 % 1031,4 hPa 0,0 l/m 0 min 0 min 0 W/m 12,9 km/h (3 Bft) 95,65 %
17.01.2022 03:36 4,8 C 4,4 C 3,9 C 99 % 1031,4 hPa 0,0 l/m 0 min 0 min 0 W/m 6,4 km/h (2 Bft) 96,61 %
17.01.2022 03:38 4,8 C 4,4 C 3,9 C 99 % 1031,4 hPa 0,0 l/m 0 min 0 min 0 W/m 16,1 km/h (3 Bft) 94,29 %
17.01.2022 03:40 4,8 C 4,4 C 3,9 C 99 % 1031,3 hPa 0,0 l/m 0 min 0 min 0 W/m 6,4 km/h (2 Bft) 95,74 %
17.01.2022 03:42 4,8 C 4,4 C 3,9 C 99 % 1031,3 hPa 0,0 l/m 0 min 0 min 0 W/m 12,9 km/h (3 Bft) 95,74 %
17.01.2022 03:44 4,8 C 4,4 C 3,9 C 99 % 1031,4 hPa 0,0 l/m 0 min 0 min 0 W/m 12,9 km/h (3 Bft) 95,65 %
17.01.2022 03:46 4,8 C 4,4 C 3,9 C 99 % 1031,4 hPa 0,0 l/m 0 min 0 min 0 W/m 6,4 km/h (2 Bft) 93,62 %
17.01.2022 03:48 4,8 C 4,4 C 3,9 C 99 % 1031,5 hPa 0,0 l/m 0 min 0 min 0 W/m 6,4 km/h (2 Bft) 93,62 %
17.01.2022 03:50 4,8 C 4,4 C 3,9 C 99 % 1031,5 hPa 0,0 l/m 0 min 0 min 0 W/m 16,1 km/h (3 Bft) 93,62 %
17.01.2022 03:52 4,8 C 4,4 C 3,9 C 99 % 1031,5 hPa 0,0 l/m 0 min 0 min 0 W/m 6,4 km/h (2 Bft) 95,74 %
17.01.2022 03:54 4,9 C 4,4 C 3,9 C 99 % 1031,5 hPa 0,0 l/m 0 min 0 min 0 W/m 12,9 km/h (3 Bft) 95,74 %
17.01.2022 03:56 4,8 C 4,4 C 3,9 C 99 % 1031,5 hPa 0,0 l/m 0 min 0 min 0 W/m 9,7 km/h (2 Bft) 93,48 %
17.01.2022 03:58 4,9 C 4,4 C 3,9 C 99 % 1031,5 hPa 0,0 l/m 0 min 0 min 0 W/m 12,9 km/h (3 Bft) 93,62 %
17.01.2022 04:00 4,9 C 4,4 C 4,4 C 99 % 1031,4 hPa 0,0 l/m 0 min 0 min 0 W/m 16,1 km/h (3 Bft) 95,74 %
17.01.2022 04:06 4,9 C 4,4 C 3,9 C 99 % 1031,3 hPa 0,0 l/m 0 min 0 min 0 W/m 12,9 km/h (3 Bft) 95,45 %
17.01.2022 04:08 4,9 C 4,4 C 3,9 C 99 % 1031,4 hPa 0,0 l/m 0 min 0 min 0 W/m 12,9 km/h (3 Bft) 97,14 %
17.01.2022 04:10 4,9 C 4,4 C 3,9 C 99 % 1031,3 hPa 0,0 l/m 0 min 0 min 0 W/m 16,1 km/h (3 Bft) 95,74 %
17.01.2022 04:12 4,8 C 4,4 C 3,9 C 99 % 1031,3 hPa 0,0 l/m 0 min 0 min 0 W/m 6,4 km/h (2 Bft) 95,74 %
17.01.2022 04:14 4,8 C 4,4 C 4,4 C 99 % 1031,1 hPa 0,0 l/m 0 min 0 min 0 W/m 6,4 km/h (2 Bft) 93,62 %
17.01.2022 04:16 4,8 C 4,4 C 3,9 C 99 % 1031,1 hPa 0,0 l/m 0 min 0 min 0 W/m 9,7 km/h (2 Bft) 95,74 %
17.01.2022 04:18 4,8 C 4,4 C 3,9 C 99 % 1031,2 hPa 0,0 l/m 0 min 0 min 0 W/m 12,9 km/h (3 Bft) 97,87 %
17.01.2022 04:20 4,8 C 4,4 C 3,9 C 99 % 1031,1 hPa 0,0 l/m 0 min 0 min 0 W/m 6,4 km/h (2 Bft) 95,65 %
17.01.2022 04:22 4,8 C 4,4 C 3,9 C 99 % 1031,1 hPa 0,0 l/m 0 min 0 min 0 W/m 12,9 km/h (3 Bft) 97,87 %
17.01.2022 04:24 4,9 C 4,4 C 4,4 C 99 % 1031,3 hPa 0,0 l/m 0 min 0 min 0 W/m 12,9 km/h (3 Bft) 47,37 %
17.01.2022 04:26 4,9 C 4,4 C 4,4 C 99 % 1031,3 hPa 0,0 l/m 0 min 0 min 0 W/m 9,7 km/h (2 Bft) 95,74 %
17.01.2022 04:28 4,9 C 4,4 C 4,4 C 99 % 1031,3 hPa 0,0 l/m 0 min 0 min 0 W/m 12,9 km/h (3 Bft) 97,87 %
17.01.2022 04:30 4,9 C 4,4 C 4,4 C 99 % 1031,4 hPa 0,0 l/m 0 min 0 min 0 W/m 12,9 km/h (3 Bft) 95,74 %
17.01.2022 04:32 4,9 C 4,4 C 4,4 C 99 % 1031,5 hPa 0,0 l/m 0 min 0 min 0 W/m 16,1 km/h (3 Bft) 97,83 %
17.01.2022 04:34 4,9 C 4,4 C 3,9 C 99 % 1031,4 hPa 0,0 l/m 0 min 0 min 0 W/m 9,7 km/h (2 Bft) 97,87 %
17.01.2022 04:36 4,9 C 4,4 C 3,9 C 99 % 1031,4 hPa 0,0 l/m 0 min 0 min 0 W/m 12,9 km/h (3 Bft) 98,31 %
17.01.2022 04:38 4,9 C 4,4 C 3,9 C 99 % 1031,4 hPa 0,0 l/m 0 min 0 min 0 W/m 6,4 km/h (2 Bft) 100,00 %
17.01.2022 04:40 4,9 C 4,4 C 3,9 C 99 % 1031,4 hPa 0,0 l/m 0 min 0 min 0 W/m 16,1 km/h (3 Bft) 100,00 %
17.01.2022 04:42 4,8 C 4,4 C 3,9 C 99 % 1031,5 hPa 0,0 l/m 0 min 0 min 0 W/m 6,4 km/h (2 Bft) 100,00 %
17.01.2022 04:44 4,8 C 4,4 C 3,9 C 99 % 1031,5 hPa 0,0 l/m 0 min 0 min 0 W/m 12,9 km/h (3 Bft) 100,00 %
17.01.2022 04:46 4,8 C 3,9 C 3,9 C 99 % 1031,5 hPa 0,0 l/m 0 min 0 min 0 W/m 6,4 km/h (2 Bft) 100,00 %
17.01.2022 04:48 4,8 C 3,9 C 3,9 C 99 % 1031,5 hPa 0,0 l/m 0 min 0 min 0 W/m 6,4 km/h (2 Bft) 100,00 %
17.01.2022 04:50 4,8 C 3,9 C 3,9 C 99 % 1031,5 hPa 0,0 l/m 0 min 0 min 0 W/m 6,4 km/h (2 Bft) 100,00 %
17.01.2022 04:52 4,7 C 3,9 C 3,9 C 99 % 1031,4 hPa 0,0 l/m 0 min 0 min 0 W/m 6,4 km/h (2 Bft) 97,87 %
17.01.2022 04:54 4,7 C 3,9 C 3,9 C 99 % 1031,4 hPa 0,0 l/m 0 min 0 min 0 W/m 6,4 km/h (2 Bft) 100,00 %
17.01.2022 04:56 4,7 C 4,4 C 3,9 C 99 % 1031,4 hPa 0,0 l/m 0 min 0 min 0 W/m 6,4 km/h (2 Bft) 100,00 %
17.01.2022 04:58 4,7 C 4,4 C 3,9 C 99 % 1031,4 hPa 0,0 l/m 0 min 0 min 0 W/m 9,7 km/h (2 Bft) 95,74 %
17.01.2022 05:00 4,7 C 4,4 C 3,9 C 99 % 1031,4 hPa 0,0 l/m 0 min 0 min 0 W/m 6,4 km/h (2 Bft) 97,87 %
17.01.2022 05:02 4,7 C 4,4 C 3,9 C 99 % 1031,4 hPa 0,0 l/m 0 min 0 min 0 W/m 6,4 km/h (2 Bft) 100,00 %
17.01.2022 05:04 4,7 C 4,4 C 3,9 C 99 % 1031,4 hPa 0,0 l/m 0 min 0 min 0 W/m 12,9 km/h (3 Bft) 100,00 %
17.01.2022 05:06 4,7 C 4,4 C 3,9 C 99 % 1031,4 hPa 0,0 l/m 0 min 0 min 0 W/m 6,4 km/h (2 Bft) 100,00 %
17.01.2022 05:08 4,7 C 4,4 C 3,9 C 99 % 1031,4 hPa 0,0 l/m 0 min 0 min 0 W/m 6,4 km/h (2 Bft) 100,00 %
17.01.2022 05:10 4,7 C 4,4 C 3,9 C 99 % 1031,5 hPa 0,0 l/m 0 min 0 min 0 W/m 6,4 km/h (2 Bft) 100,00 %
17.01.2022 05:12 4,7 C 4,4 C 3,9 C 99 % 1031,5 hPa 0,0 l/m 0 min 0 min 0 W/m 9,7 km/h (2 Bft) 100,00 %
17.01.2022 05:14 4,7 C 4,4 C 3,9 C 99 % 1031,6 hPa 0,0 l/m 0 min 0 min 0 W/m 12,9 km/h (3 Bft) 100,00 %
17.01.2022 05:16 4,7 C 4,4 C 3,9 C 99 % 1031,5 hPa 0,0 l/m 0 min 0 min 0 W/m 6,4 km/h (2 Bft) 95,74 %
17.01.2022 05:18 4,7 C 4,4 C 3,9 C 99 % 1031,6 hPa 0,0 l/m 0 min 0 min 0 W/m 12,9 km/h (3 Bft) 100,00 %
17.01.2022 05:20 4,7 C 4,4 C 3,9 C 99 % 1031,6 hPa 0,0 l/m 0 min 0 min 0 W/m 9,7 km/h (2 Bft) 100,00 %
17.01.2022 05:22 4,7 C 4,4 C 3,9 C 99 % 1031,6 hPa 0,0 l/m 0 min 0 min 0 W/m 6,4 km/h (2 Bft) 100,00 %
17.01.2022 05:24 4,7 C 4,4 C 3,9 C 99 % 1031,6 hPa 0,0 l/m 0 min 0 min 0 W/m 12,9 km/h (3 Bft) 100,00 %
17.01.2022 05:26 4,7 C 4,4 C 3,9 C 99 % 1031,6 hPa 0,0 l/m 0 min 0 min 0 W/m 12,9 km/h (3 Bft) 100,00 %
17.01.2022 05:28 4,7 C 4,4 C 3,9 C 99 % 1031,8 hPa 0,0 l/m 0 min 0 min 0 W/m 12,9 km/h (3 Bft) 100,00 %
17.01.2022 05:30 4,7 C 4,4 C 3,9 C 99 % 1031,8 hPa 0,0 l/m 0 min 0 min 0 W/m 9,7 km/h (2 Bft) 98,11 %
17.01.2022 05:32 4,7 C 4,4 C 3,9 C 99 % 1031,8 hPa 0,0 l/m 0 min 0 min 0 W/m 12,9 km/h (3 Bft) 95,92 %
17.01.2022 05:34 4,7 C 4,4 C 3,9 C 99 % 1031,8 hPa 0,0 l/m 0 min 0 min 0 W/m 9,7 km/h (2 Bft) 100,00 %
17.01.2022 05:36 4,7 C 4,4 C 3,9 C 99 % 1031,9 hPa 0,0 l/m 0 min 0 min 0 W/m 6,4 km/h (2 Bft) 100,00 %
17.01.2022 05:38 4,7 C 4,4 C 3,9 C 99 % 1031,9 hPa 0,0 l/m 0 min 0 min 0 W/m 6,4 km/h (2 Bft) 100,00 %
17.01.2022 05:40 4,7 C 4,4 C 3,9 C 99 % 1032,0 hPa 0,0 l/m 0 min 0 min 0 W/m 3,2 km/h (1 Bft) 100,00 %
17.01.2022 05:42 4,7 C 4,4 C 3,9 C 99 % 1031,9 hPa 0,0 l/m 0 min 0 min 0 W/m 3,2 km/h (1 Bft) 100,00 %
17.01.2022 05:44 4,7 C 4,4 C 3,9 C 99 % 1031,9 hPa 0,0 l/m 0 min 0 min 0 W/m 6,4 km/h (2 Bft) 100,00 %
17.01.2022 05:46 4,7 C 4,4 C 3,9 C 99 % 1031,8 hPa 0,0 l/m 0 min 0 min 0 W/m 3,2 km/h (1 Bft) 100,00 %
17.01.2022 05:48 4,7 C 3,9 C 3,9 C 99 % 1031,8 hPa 0,0 l/m 0 min 0 min 0 W/m 3,2 km/h (1 Bft) 97,87 %
17.01.2022 05:50 4,7 C 3,9 C 3,9 C 99 % 1031,8 hPa 0,0 l/m 0 min 0 min 0 W/m 12,9 km/h (3 Bft) 100,00 %
17.01.2022 05:52 4,7 C 3,9 C 3,9 C 99 % 1031,7 hPa 0,0 l/m 0 min 0 min 0 W/m 6,4 km/h (2 Bft) 97,87 %
17.01.2022 05:54 4,7 C 3,9 C 3,9 C 99 % 1031,7 hPa 0,0 l/m 0 min 0 min 0 W/m 12,9 km/h (3 Bft) 100,00 %
17.01.2022 05:56 4,7 C 3,9 C 3,9 C 99 % 1031,7 hPa 0,0 l/m 0 min 0 min 0 W/m 3,2 km/h (1 Bft) 97,87 %
17.01.2022 05:58 4,7 C 3,9 C 3,9 C 99 % 1031,7 hPa 0,0 l/m 0 min 0 min 0 W/m 6,4 km/h (2 Bft) 95,74 %
17.01.2022 06:00 4,7 C 3,9 C 3,9 C 99 % 1031,7 hPa 0,0 l/m 0 min 0 min 0 W/m 12,9 km/h (3 Bft) 97,83 %
17.01.2022 06:02 4,7 C 3,9 C 3,9 C 99 % 1031,7 hPa 0,0 l/m 0 min 0 min 0 W/m 6,4 km/h (2 Bft) 93,75 %
17.01.2022 06:04 4,7 C 3,9 C 3,9 C 99 % 1031,8 hPa 0,0 l/m 0 min 0 min 0 W/m 6,4 km/h (2 Bft) 93,62 %
17.01.2022 06:06 4,6 C 3,9 C 3,9 C 99 % 1031,8 hPa 0,0 l/m 0 min 0 min 0 W/m 6,4 km/h (2 Bft) 93,75 %
17.01.2022 06:08 4,6 C 3,9 C 3,9 C 99 % 1031,8 hPa 0,0 l/m 0 min 0 min 0 W/m 12,9 km/h (3 Bft) 95,74 %
17.01.2022 06:10 4,6 C 3,9 C 3,9 C 99 % 1031,8 hPa 0,0 l/m 0 min 0 min 0 W/m 12,9 km/h (3 Bft) 93,62 %
17.01.2022 06:12 4,6 C 3,9 C 3,9 C 99 % 1031,8 hPa 0,0 l/m 0 min 0 min 0 W/m 6,4 km/h (2 Bft) 93,48 %
17.01.2022 06:14 4,6 C 3,9 C 3,9 C 99 % 1031,9 hPa 0,0 l/m 0 min 0 min 0 W/m 12,9 km/h (3 Bft) 93,62 %
17.01.2022 06:16 4,6 C 3,9 C 3,9 C 99 % 1031,9 hPa 0,0 l/m 0 min 0 min 0 W/m 6,4 km/h (2 Bft) 93,62 %
17.01.2022 06:18 4,6 C 3,9 C 3,9 C 99 % 1031,9 hPa 0,0 l/m 0 min 0 min 0 W/m 6,4 km/h (2 Bft) 91,49 %
17.01.2022 06:20 4,5 C 3,9 C 3,9 C 99 % 1031,9 hPa 0,0 l/m 0 min 0 min 0 W/m 6,4 km/h (2 Bft) 91,49 %
17.01.2022 06:22 4,5 C 3,9 C 3,9 C 99 % 1031,9 hPa 0,0 l/m 0 min 0 min 0 W/m 6,4 km/h (2 Bft) 93,62 %
17.01.2022 06:24 4,4 C 3,9 C 3,9 C 99 % 1032,0 hPa 0,0 l/m 0 min 0 min 0 W/m 6,4 km/h (2 Bft) 93,48 %
17.01.2022 06:26 4,4 C 3,9 C 3,9 C 99 % 1032,1 hPa 0,0 l/m 0 min 0 min 0 W/m 6,4 km/h (2 Bft) 93,62 %
17.01.2022 06:28 4,4 C 3,9 C 3,3 C 99 % 1032,1 hPa 0,0 l/m 0 min 0 min 0 W/m 3,2 km/h (1 Bft) 91,49 %
17.01.2022 06:30 4,4 C 3,3 C 3,9 C 99 % 1032,2 hPa 0,0 l/m 0 min 0 min 0 W/m 6,4 km/h (2 Bft) 93,62 %
17.01.2022 06:32 4,3 C 3,3 C 3,3 C 99 % 1032,2 hPa 0,0 l/m 0 min 0 min 0 W/m 3,2 km/h (1 Bft) 95,83 %
17.01.2022 06:34 4,3 C 3,9 C 3,3 C 99 % 1032,3 hPa 0,0 l/m 0 min 0 min 0 W/m 12,9 km/h (3 Bft) 95,74 %
17.01.2022 06:36 4,3 C 3,9 C 3,9 C 99 % 1032,2 hPa 0,0 l/m 0 min 0 min 0 W/m 6,4 km/h (2 Bft) 93,48 %
17.01.2022 06:38 4,3 C 3,9 C 3,9 C 99 % 1032,3 hPa 0,0 l/m 0 min 0 min 0 W/m 6,4 km/h (2 Bft) 95,83 %
17.01.2022 06:40 4,3 C 3,9 C 3,9 C 99 % 1032,3 hPa 0,0 l/m 0 min 0 min 0 W/m 6,4 km/h (2 Bft) 95,74 %
17.01.2022 06:42 4,3 C 3,9 C 3,9 C 99 % 1032,3 hPa 0,0 l/m 0 min 0 min 0 W/m 12,9 km/h (3 Bft) 95,74 %
17.01.2022 06:44 4,3 C 3,9 C 3,9 C 99 % 1032,2 hPa 0,0 l/m 0 min 0 min 0 W/m 6,4 km/h (2 Bft) 95,74 %
17.01.2022 06:46 4,3 C 3,9 C 3,9 C 99 % 1032,2 hPa 0,0 l/m 0 min 0 min 0 W/m 9,7 km/h (2 Bft) 97,87 %
17.01.2022 06:48 4,3 C 3,9 C 3,9 C 99 % 1032,2 hPa 0,0 l/m 0 min 0 min 0 W/m 6,4 km/h (2 Bft) 97,83 %
17.01.2022 06:50 4,3 C 3,9 C 3,9 C 99 % 1032,1 hPa 0,0 l/m 0 min 0 min 0 W/m 6,4 km/h (2 Bft) 97,87 %
17.01.2022 06:52 4,3 C 3,9 C 3,9 C 99 % 1032,1 hPa 0,0 l/m 0 min 0 min 0 W/m 6,4 km/h (2 Bft) 95,74 %
17.01.2022 06:54 4,4 C 3,9 C 3,9 C 99 % 1032,0 hPa 0,0 l/m 0 min 0 min 0 W/m 6,4 km/h (2 Bft) 97,87 %
17.01.2022 06:56 4,4 C 3,9 C 3,9 C 99 % 1032,0 hPa 0,0 l/m 0 min 0 min 0 W/m 6,4 km/h (2 Bft) 100,00 %
17.01.2022 06:58 4,4 C 3,9 C 3,9 C 99 % 1032,0 hPa 0,0 l/m 0 min 0 min 0 W/m 6,4 km/h (2 Bft) 97,83 %
17.01.2022 07:00 4,4 C 3,9 C 3,9 C 99 % 1032,0 hPa 0,0 l/m 0 min 0 min 0 W/m 9,7 km/h (2 Bft) 97,87 %
17.01.2022 07:02 4,4 C 3,9 C 3,9 C 99 % 1032,0 hPa 0,0 l/m 0 min 0 min 0 W/m 6,4 km/h (2 Bft) 97,87 %
17.01.2022 07:04 4,4 C 3,9 C 3,9 C 99 % 1032,0 hPa 0,0 l/m 0 min 0 min 0 W/m 3,2 km/h (1 Bft) 93,62 %
17.01.2022 07:06 4,4 C 3,9 C 3,9 C 99 % 1031,9 hPa 0,0 l/m 0 min 0 min 0 W/m 6,4 km/h (2 Bft) 100,00 %
17.01.2022 07:08 4,4 C 3,9 C 3,9 C 99 % 1031,9 hPa 0,0 l/m 0 min 0 min 0 W/m 6,4 km/h (2 Bft) 100,00 %
17.01.2022 07:10 4,4 C 3,9 C 3,9 C 99 % 1032,0 hPa 0,0 l/m 0 min 0 min 0 W/m 16,1 km/h (3 Bft) 100,00 %
17.01.2022 07:12 4,4 C 3,9 C 3,9 C 99 % 1032,0 hPa 0,0 l/m 0 min 0 min 0 W/m 6,4 km/h (2 Bft) 97,83 %
17.01.2022 07:14 4,4 C 3,9 C 3,9 C 99 % 1032,0 hPa 0,0 l/m 0 min 0 min 0 W/m 6,4 km/h (2 Bft) 100,00 %
17.01.2022 07:16 4,4 C 3,9 C 3,9 C 99 % 1032,1 hPa 0,0 l/m 0 min 0 min 0 W/m 6,4 km/h (2 Bft) 100,00 %
17.01.2022 07:18 4,5 C 3,9 C 3,9 C 99 % 1032,1 hPa 0,0 l/m 0 min 0 min 0 W/m 3,2 km/h (1 Bft) 100,00 %
17.01.2022 07:20 4,4 C 3,9 C 3,9 C 99 % 1032,2 hPa 0,0 l/m 0 min 0 min 0 W/m 9,7 km/h (2 Bft) 100,00 %
17.01.2022 07:22 4,5 C 3,9 C 3,9 C 99 % 1032,1 hPa 0,0 l/m 0 min 0 min 0 W/m 6,4 km/h (2 Bft) 97,83 %
17.01.2022 07:24 4,5 C 3,9 C 3,9 C 99 % 1032,1 hPa 0,0 l/m 0 min 0 min 0 W/m 9,7 km/h (2 Bft) 100,00 %
17.01.2022 07:26 4,5 C 3,9 C 3,9 C 99 % 1032,1 hPa 0,0 l/m 0 min 0 min 0 W/m 6,4 km/h (2 Bft) 100,00 %
17.01.2022 07:28 4,5 C 3,9 C 3,9 C 99 % 1032,1 hPa 0,0 l/m 0 min 0 min 0 W/m 6,4 km/h (2 Bft) 100,00 %
17.01.2022 07:30 4,5 C 3,9 C 3,9 C 99 % 1032,2 hPa 0,0 l/m 0 min 0 min 0 W/m 6,4 km/h (2 Bft) 100,00 %
17.01.2022 07:32 4,6 C 3,9 C 3,9 C 99 % 1032,2 hPa 0,0 l/m 0 min 0 min 0 W/m 6,4 km/h (2 Bft) 100,00 %
17.01.2022 07:34 4,6 C 3,9 C 3,9 C 99 % 1032,3 hPa 0,0 l/m 0 min 0 min 0 W/m 9,7 km/h (2 Bft) 100,00 %
17.01.2022 07:36 4,6 C 3,9 C 3,9 C 99 % 1032,2 hPa 0,0 l/m 0 min 0 min 0 W/m 12,9 km/h (3 Bft) 100,00 %
17.01.2022 07:38 4,6 C 3,9 C 3,9 C 99 % 1032,2 hPa 0,0 l/m 0 min 0 min 0 W/m 6,4 km/h (2 Bft) 100,00 %
17.01.2022 07:40 4,6 C 3,9 C 3,9 C 99 % 1032,1 hPa 0,0 l/m 0 min 0 min 0 W/m 3,2 km/h (1 Bft) 100,00 %
17.01.2022 07:42 4,6 C 3,9 C 3,9 C 99 % 1032,2 hPa 0,0 l/m 0 min 0 min 0 W/m 12,9 km/h (3 Bft) 100,00 %
17.01.2022 07:44 4,6 C 3,9 C 3,9 C 99 % 1032,1 hPa 0,0 l/m 0 min 0 min 0 W/m 9,7 km/h (2 Bft) 97,87 %
17.01.2022 07:46 4,6 C 3,9 C 3,9 C 99 % 1032,0 hPa 0,0 l/m 0 min 0 min 0 W/m 6,4 km/h (2 Bft) 100,00 %
17.01.2022 07:48 4,6 C 3,9 C 3,9 C 99 % 1032,0 hPa 0,0 l/m 0 min 0 min 0 W/m 9,7 km/h (2 Bft) 100,00 %
17.01.2022 07:50 4,6 C 3,9 C 3,9 C 99 % 1032,0 hPa 0,0 l/m 0 min 0 min 0 W/m 9,7 km/h (2 Bft) 100,00 %
17.01.2022 07:52 4,6 C 3,9 C 3,9 C 99 % 1031,9 hPa 0,0 l/m 0 min 0 min 0 W/m 6,4 km/h (2 Bft) 97,87 %
17.01.2022 07:54 4,6 C 3,9 C 3,9 C 99 % 1032,0 hPa 0,0 l/m 0 min 0 min 0 W/m 6,4 km/h (2 Bft) 97,87 %
17.01.2022 07:56 4,6 C 3,9 C 3,9 C 99 % 1032,0 hPa 0,0 l/m 0 min 0 min 0 W/m 6,4 km/h (2 Bft) 97,87 %
17.01.2022 07:58 4,6 C 3,9 C 3,9 C 99 % 1032,0 hPa 0,0 l/m 0 min 0 min 0 W/m 9,7 km/h (2 Bft) 97,83 %
17.01.2022 08:00 4,6 C 3,9 C 3,9 C 99 % 1032,1 hPa 0,0 l/m 0 min 0 min 0 W/m 12,9 km/h (3 Bft) 97,87 %
17.01.2022 08:02 4,6 C 3,9 C 3,9 C 99 % 1032,1 hPa 0,0 l/m 0 min 0 min 0 W/m 9,7 km/h (2 Bft) 97,92 %
17.01.2022 08:04 4,6 C 3,9 C 3,9 C 99 % 1032,2 hPa 0,0 l/m 0 min 0 min 0 W/m 12,9 km/h (3 Bft) 97,87 %
17.01.2022 08:06 4,6 C 3,9 C 3,9 C 99 % 1032,4 hPa 0,0 l/m 0 min 0 min 0 W/m 9,7 km/h (2 Bft) 93,62 %
17.01.2022 08:08 4,6 C 3,9 C 3,9 C 99 % 1032,5 hPa 0,0 l/m 0 min 0 min 0 W/m 16,1 km/h (3 Bft) 97,83 %
17.01.2022 08:10 4,6 C 3,9 C 3,9 C 99 % 1032,4 hPa 0,0 l/m 0 min 0 min 0 W/m 12,9 km/h (3 Bft) 97,87 %
17.01.2022 08:12 4,6 C 3,9 C 3,9 C 99 % 1032,6 hPa 0,0 l/m 0 min 0 min 0 W/m 12,9 km/h (3 Bft) 97,87 %
17.01.2022 08:14 4,6 C 3,9 C 3,9 C 99 % 1032,8 hPa 0,0 l/m 0 min 0 min 0 W/m 12,9 km/h (3 Bft) 93,62 %
17.01.2022 08:16 4,6 C 3,9 C 3,9 C 99 % 1032,8 hPa 0,0 l/m 0 min 0 min 0 W/m 22,5 km/h (4 Bft) 97,87 %
17.01.2022 08:18 4,6 C 3,9 C 3,9 C 99 % 1032,6 hPa 0,0 l/m 0 min 0 min 0 W/m 19,3 km/h (3 Bft) 95,74 %
17.01.2022 08:20 4,6 C 3,9 C 3,9 C 98 % 1032,5 hPa 0,0 l/m 0 min 0 min 0 W/m 9,7 km/h (2 Bft) 97,83 %
17.01.2022 08:22 4,6 C 3,9 C 3,9 C 98 % 1032,4 hPa 0,0 l/m 0 min 0 min 0 W/m 16,1 km/h (3 Bft) 97,87 %
17.01.2022 08:24 4,6 C 3,9 C 3,9 C 98 % 1032,2 hPa 0,0 l/m 0 min 0 min 5 W/m 6,4 km/h (2 Bft) 97,87 %
17.01.2022 08:26 4,6 C 3,9 C 3,9 C 98 % 1032,2 hPa 0,0 l/m 0 min 0 min 5 W/m 12,9 km/h (3 Bft) 97,87 %
17.01.2022 08:28 4,6 C 3,9 C 3,9 C 98 % 1032,2 hPa 0,0 l/m 0 min 0 min 5 W/m 12,9 km/h (3 Bft) 97,87 %
17.01.2022 08:30 4,6 C 3,9 C 3,9 C 98 % 1032,1 hPa 0,0 l/m 0 min 0 min 5 W/m 16,1 km/h (3 Bft) 97,87 %
17.01.2022 08:32 4,6 C 3,9 C 3,9 C 99 % 1032,1 hPa 0,0 l/m 0 min 0 min 5 W/m 9,7 km/h (2 Bft) 97,87 %
17.01.2022 08:34 4,7 C 3,9 C 3,9 C 99 % 1032,0 hPa 0,0 l/m 0 min 0 min 5 W/m 12,9 km/h (3 Bft) 97,87 %
17.01.2022 08:36 4,7 C 4,4 C 3,9 C 99 % 1032,1 hPa 0,0 l/m 0 min 0 min 5 W/m 16,1 km/h (3 Bft) 97,87 %
17.01.2022 08:38 4,7 C 4,4 C 3,9 C 99 % 1032,1 hPa 0,0 l/m 0 min 0 min 6 W/m 12,9 km/h (3 Bft) 97,87 %
17.01.2022 08:40 4,7 C 3,9 C 3,9 C 99 % 1032,1 hPa 0,0 l/m 0 min 0 min 9 W/m 12,9 km/h (3 Bft) 95,74 %
17.01.2022 08:42 4,7 C 3,9 C 3,9 C 98 % 1032,2 hPa 0,0 l/m 0 min 0 min 10 W/m 12,9 km/h (3 Bft) 93,62 %
17.01.2022 08:44 4,7 C 3,9 C 3,9 C 98 % 1032,2 hPa 0,0 l/m 0 min 0 min 14 W/m 16,1 km/h (3 Bft) 97,83 %
17.01.2022 08:46 4,7 C 3,9 C 3,9 C 98 % 1032,2 hPa 0,0 l/m 0 min 0 min 16 W/m 12,9 km/h (3 Bft) 98,00 %
17.01.2022 08:48 4,7 C 3,9 C 3,9 C 98 % 1032,1 hPa 0,0 l/m 0 min 0 min 14 W/m 16,1 km/h (3 Bft) 97,87 %
17.01.2022 08:50 4,7 C 3,9 C 3,9 C 98 % 1032,1 hPa 0,0 l/m 0 min 0 min 14 W/m 16,1 km/h (3 Bft) 97,87 %
17.01.2022 08:52 4,6 C 3,9 C 3,9 C 98 % 1032,1 hPa 0,0 l/m 0 min 0 min 15 W/m 12,9 km/h (3 Bft) 95,74 %
17.01.2022 08:54 4,6 C 3,9 C 3,9 C 98 % 1032,2 hPa 0,0 l/m 0 min 0 min 16 W/m 12,9 km/h (3 Bft) 97,83 %
17.01.2022 08:56 4,7 C 3,9 C 3,9 C 98 % 1032,2 hPa 0,0 l/m 0 min 0 min 19 W/m 12,9 km/h (3 Bft) 97,22 %
17.01.2022 08:58 4,7 C 3,9 C 3,9 C 98 % 1032,3 hPa 0,0 l/m 0 min 0 min 18 W/m 12,9 km/h (3 Bft) 98,18 %
17.01.2022 09:00 4,7 C 4,4 C 3,9 C 98 % 1032,3 hPa 0,0 l/m 0 min 0 min 17 W/m 12,9 km/h (3 Bft) 96,00 %
17.01.2022 09:02 4,7 C 4,4 C 3,9 C 98 % 1032,4 hPa 0,0 l/m 0 min 0 min 14 W/m 12,9 km/h (3 Bft) 94,29 %
17.01.2022 09:04 4,7 C 4,4 C 3,9 C 98 % 1032,3 hPa 0,0 l/m 0 min 0 min 13 W/m 16,1 km/h (3 Bft) 100,00 %
17.01.2022 09:06 4,7 C 4,4 C 3,9 C 98 % 1032,4 hPa 0,0 l/m 0 min 0 min 17 W/m 22,5 km/h (4 Bft) 95,92 %
17.01.2022 09:08 4,7 C 4,4 C 3,9 C 98 % 1032,6 hPa 0,0 l/m 0 min 0 min 21 W/m 16,1 km/h (3 Bft) 100,00 %
17.01.2022 09:10 4,7 C 4,4 C 3,9 C 98 % 1032,5 hPa 0,0 l/m 0 min 0 min 21 W/m 12,9 km/h (3 Bft) 100,00 %
17.01.2022 09:12 4,7 C 4,4 C 3,9 C 98 % 1032,7 hPa 0,0 l/m 0 min 0 min 20 W/m 19,3 km/h (3 Bft) 100,00 %
17.01.2022 09:14 4,7 C 4,4 C 3,9 C 98 % 1032,7 hPa 0,0 l/m 0 min 0 min 15 W/m 12,9 km/h (3 Bft) 98,21 %
17.01.2022 09:16 4,7 C 4,4 C 3,9 C 98 % 1032,8 hPa 0,0 l/m 0 min 0 min 16 W/m 12,9 km/h (3 Bft) 100,00 %
17.01.2022 09:18 4,7 C 4,4 C 3,9 C 98 % 1032,8 hPa 0,0 l/m 0 min 0 min 14 W/m 12,9 km/h (3 Bft) 95,74 %
17.01.2022 09:20 4,7 C 4,4 C 4,4 C 98 % 1032,8 hPa 0,0 l/m 0 min 0 min 12 W/m 9,7 km/h (2 Bft) 97,83 %
17.01.2022 09:22 4,8 C 4,4 C 4,4 C 98 % 1032,8 hPa 0,0 l/m 0 min 0 min 13 W/m 12,9 km/h (3 Bft) 97,87 %
17.01.2022 09:24 4,8 C 4,4 C 4,4 C 98 % 1032,8 hPa 0,0 l/m 0 min 0 min 18 W/m 16,1 km/h (3 Bft) 98,21 %
17.01.2022 09:26 4,8 C 4,4 C 4,4 C 98 % 1032,8 hPa 0,0 l/m 0 min 0 min 28 W/m 16,1 km/h (3 Bft) 97,87 %
17.01.2022 09:28 4,8 C 4,4 C 4,4 C 98 % 1032,8 hPa 0,0 l/m 0 min 0 min 32 W/m 16,1 km/h (3 Bft) 95,65 %
17.01.2022 09:30 4,9 C 4,4 C 4,4 C 98 % 1032,8 hPa 0,0 l/m 0 min 0 min 35 W/m 19,3 km/h (3 Bft) 97,87 %
17.01.2022 09:32 4,9 C 4,4 C 4,4 C 98 % 1032,9 hPa 0,0 l/m 0 min 0 min 26 W/m 22,5 km/h (4 Bft) 97,87 %
17.01.2022 09:34 4,9 C 4,4 C 4,4 C 98 % 1032,9 hPa 0,0 l/m 0 min 0 min 26 W/m 19,3 km/h (3 Bft) 97,37 %
17.01.2022 09:36 5,0 C 4,4 C 4,4 C 98 % 1032,9 hPa 0,0 l/m 0 min 0 min 24 W/m 19,3 km/h (3 Bft) 97,87 %
17.01.2022 09:38 5,0 C 4,4 C 4,4 C 98 % 1033,0 hPa 0,0 l/m 0 min 0 min 26 W/m 16,1 km/h (3 Bft) 51,16 %
17.01.2022 09:40 5,0 C 4,4 C 4,4 C 98 % 1032,9 hPa 0,0 l/m 0 min 0 min 35 W/m 19,3 km/h (3 Bft) 98,18 %
17.01.2022 09:42 5,0 C 4,4 C 4,4 C 98 % 1032,9 hPa 0,0 l/m 0 min 0 min 37 W/m 16,1 km/h (3 Bft) 97,87 %
17.01.2022 09:44 5,1 C 4,4 C 4,4 C 98 % 1032,8 hPa 0,0 l/m 0 min 0 min 26 W/m 9,7 km/h (2 Bft) 97,37 %
17.01.2022 09:46 5,1 C 4,4 C 4,4 C 98 % 1032,8 hPa 0,0 l/m 0 min 0 min 31 W/m 12,9 km/h (3 Bft) 91,49 %
17.01.2022 09:48 5,1 C 4,4 C 4,4 C 98 % 1032,7 hPa 0,0 l/m 0 min 0 min 33 W/m 22,5 km/h (4 Bft) 95,74 %
17.01.2022 09:50 5,1 C 4,4 C 4,4 C 98 % 1032,6 hPa 0,0 l/m 0 min 0 min 44 W/m 19,3 km/h (3 Bft) 93,62 %
17.01.2022 09:52 5,1 C 4,4 C 4,4 C 98 % 1032,6 hPa 0,0 l/m 0 min 0 min 48 W/m 16,1 km/h (3 Bft) 94,55 %
17.01.2022 09:54 5,1 C 5,0 C 4,4 C 98 % 1032,7 hPa 0,0 l/m 0 min 0 min 49 W/m 12,9 km/h (3 Bft) 94,74 %
17.01.2022 09:56 5,1 C 5,0 C 4,4 C 98 % 1032,6 hPa 0,0 l/m 0 min 0 min 52 W/m 12,9 km/h (3 Bft) 93,62 %
17.01.2022 09:58 5,1 C 5,0 C 4,4 C 98 % 1032,5 hPa 0,0 l/m 0 min 0 min 45 W/m 19,3 km/h (3 Bft) 95,74 %
17.01.2022 10:00 5,1 C 5,0 C 4,4 C 98 % 1032,5 hPa 0,0 l/m 0 min 0 min 69 W/m 16,1 km/h (3 Bft) 95,74 %
17.01.2022 10:02 5,2 C 5,0 C 4,4 C 98 % 1032,6 hPa 0,0 l/m 2 min 0 min 112 W/m 16,1 km/h (3 Bft) 93,62 %
17.01.2022 10:04 5,2 C 5,0 C 5,0 C 98 % 1032,6 hPa 0,0 l/m 2 min 0 min 117 W/m 12,9 km/h (3 Bft) 93,62 %
17.01.2022 10:06 5,2 C 5,6 C 5,0 C 98 % 1032,5 hPa 0,0 l/m 2 min 0 min 140 W/m 12,9 km/h (3 Bft) 92,73 %
17.01.2022 10:08 5,3 C 5,0 C 5,0 C 98 % 1032,6 hPa 0,0 l/m 0 min 0 min 84 W/m 16,1 km/h (3 Bft) 95,74 %
17.01.2022 10:10 5,3 C 5,0 C 5,0 C 98 % 1032,6 hPa 0,0 l/m 0 min 0 min 61 W/m 12,9 km/h (3 Bft) 95,74 %
17.01.2022 10:12 5,3 C 5,0 C 5,0 C 98 % 1032,6 hPa 0,0 l/m 0 min 0 min 59 W/m 12,9 km/h (3 Bft) 97,87 %
17.01.2022 10:14 5,3 C 5,0 C 5,0 C 98 % 1032,7 hPa 0,0 l/m 0 min 0 min 57 W/m 16,1 km/h (3 Bft) 97,96 %
17.01.2022 10:16 5,3 C 5,0 C 5,0 C 98 % 1032,6 hPa 0,0 l/m 0 min 0 min 56 W/m 19,3 km/h (3 Bft) 95,74 %
17.01.2022 10:18 5,3 C 5,0 C 5,0 C 98 % 1032,8 hPa 0,0 l/m 0 min 0 min 53 W/m 12,9 km/h (3 Bft) 100,00 %
17.01.2022 10:20 5,4 C 5,0 C 5,0 C 98 % 1032,9 hPa 0,0 l/m 0 min 0 min 51 W/m 16,1 km/h (3 Bft) 98,00 %
17.01.2022 10:22 5,4 C 5,0 C 5,0 C 98 % 1032,9 hPa 0,0 l/m 0 min 0 min 56 W/m 16,1 km/h (3 Bft) 97,87 %
17.01.2022 10:24 5,4 C 5,0 C 5,0 C 98 % 1032,9 hPa 0,0 l/m 0 min 0 min 62 W/m 12,9 km/h (3 Bft) 100,00 %
17.01.2022 10:26 5,4 C 5,0 C 5,0 C 97 % 1033,0 hPa 0,0 l/m 0 min 0 min 56 W/m 9,7 km/h (2 Bft) 100,00 %
17.01.2022 10:28 5,5 C 5,0 C 5,0 C 98 % 1033,1 hPa 0,0 l/m 0 min 0 min 39 W/m 16,1 km/h (3 Bft) 97,83 %
17.01.2022 10:30 5,5 C 5,0 C 5,0 C 98 % 1033,1 hPa 0,0 l/m 0 min 0 min 31 W/m 19,3 km/h (3 Bft) 97,87 %
17.01.2022 10:32 5,6 C 5,0 C 5,0 C 98 % 1033,1 hPa 0,0 l/m 0 min 0 min 29 W/m 19,3 km/h (3 Bft) 100,00 %
17.01.2022 10:34 5,6 C 5,0 C 5,0 C 98 % 1033,2 hPa 0,0 l/m 0 min 0 min 25 W/m 12,9 km/h (3 Bft) 94,74 %
17.01.2022 10:36 5,6 C 5,0 C 5,0 C 98 % 1033,2 hPa 0,0 l/m 0 min 0 min 22 W/m 16,1 km/h (3 Bft) 100,00 %
17.01.2022 10:38 5,6 C 5,0 C 5,0 C 97 % 1033,3 hPa 0,0 l/m 0 min 0 min 23 W/m 12,9 km/h (3 Bft) 100,00 %
17.01.2022 10:40 5,6 C 5,0 C 5,0 C 97 % 1033,3 hPa 0,0 l/m 0 min 0 min 26 W/m 12,9 km/h (3 Bft) 100,00 %
17.01.2022 10:42 5,6 C 5,0 C 5,0 C 97 % 1033,4 hPa 0,0 l/m 0 min 0 min 27 W/m 16,1 km/h (3 Bft) 97,96 %
17.01.2022 10:44 5,6 C 5,0 C 5,0 C 97 % 1033,5 hPa 0,0 l/m 0 min 0 min 40 W/m 12,9 km/h (3 Bft) 100,00 %
17.01.2022 10:46 5,6 C 5,0 C 5,0 C 97 % 1033,4 hPa 0,0 l/m 0 min 0 min 49 W/m 9,7 km/h (2 Bft) 97,87 %
17.01.2022 10:48 5,6 C 5,0 C 5,0 C 97 % 1033,5 hPa 0,0 l/m 0 min 0 min 62 W/m 12,9 km/h (3 Bft) 100,00 %
17.01.2022 10:50 5,7 C 5,6 C 5,0 C 97 % 1033,5 hPa 0,0 l/m 0 min 0 min 65 W/m 12,9 km/h (3 Bft) 97,87 %
17.01.2022 10:52 5,7 C 5,6 C 5,0 C 97 % 1033,5 hPa 0,0 l/m 0 min 0 min 73 W/m 12,9 km/h (3 Bft) 97,83 %
17.01.2022 10:54 5,7 C 5,6 C 5,0 C 97 % 1033,5 hPa 0,0 l/m 0 min 0 min 69 W/m 16,1 km/h (3 Bft) 97,87 %
17.01.2022 10:56 5,7 C 5,6 C 5,0 C 97 % 1033,5 hPa 0,0 l/m 0 min 0 min 77 W/m 19,3 km/h (3 Bft) 95,74 %
17.01.2022 10:58 5,8 C 5,6 C 5,6 C 97 % 1033,5 hPa 0,0 l/m 0 min 0 min 94 W/m 16,1 km/h (3 Bft) 95,74 %
17.01.2022 11:00 5,8 C 5,6 C 5,6 C 97 % 1033,5 hPa 0,0 l/m 0 min 0 min 89 W/m 29,0 km/h (5 Bft) 97,67 %
17.01.2022 11:02 5,9 C 5,6 C 5,6 C 97 % 1033,4 hPa 0,0 l/m 0 min 0 min 73 W/m 16,1 km/h (3 Bft) 93,62 %
17.01.2022 11:04 5,9 C 5,6 C 5,6 C 97 % 1033,6 hPa 0,0 l/m 0 min 0 min 82 W/m 12,9 km/h (3 Bft) 97,83 %
17.01.2022 11:06 5,9 C 5,6 C 5,6 C 97 % 1033,7 hPa 0,0 l/m 0 min 0 min 88 W/m 16,1 km/h (3 Bft) 97,87 %
17.01.2022 11:08 5,9 C 5,6 C 5,6 C 97 % 1033,6 hPa 0,0 l/m 0 min 0 min 75 W/m 19,3 km/h (3 Bft) 97,87 %
17.01.2022 11:10 6,0 C 5,6 C 5,6 C 97 % 1033,5 hPa 0,0 l/m 0 min 0 min 73 W/m 16,1 km/h (3 Bft) 97,87 %
17.01.2022 11:12 6,0 C 5,6 C 5,6 C 97 % 1033,5 hPa 0,0 l/m 0 min 0 min 68 W/m 16,1 km/h (3 Bft) 98,00 %
17.01.2022 11:14 6,0 C 5,6 C 5,6 C 97 % 1033,6 hPa 0,0 l/m 0 min 0 min 69 W/m 25,7 km/h (4 Bft) 97,87 %
17.01.2022 11:16 6,0 C 5,6 C 5,6 C 97 % 1033,5 hPa 0,0 l/m 0 min 2 min 67 W/m 25,7 km/h (4 Bft) 95,74 %
17.01.2022 11:18 6,1 C 5,6 C 5,6 C 97 % 1033,4 hPa 0,0 l/m 0 min 2 min 90 W/m 16,1 km/h (3 Bft) 97,87 %
17.01.2022 11:20 6,1 C 5,6 C 5,6 C 97 % 1033,4 hPa 0,0 l/m 0 min 2 min 72 W/m 16,1 km/h (3 Bft) 97,87 %
17.01.2022 11:22 6,1 C 5,6 C 5,6 C 97 % 1033,5 hPa 0,0 l/m 0 min 2 min 91 W/m 16,1 km/h (3 Bft) 97,87 %
17.01.2022 11:24 6,1 C 5,6 C 5,6 C 97 % 1033,6 hPa 0,0 l/m 0 min 2 min 97 W/m 16,1 km/h (3 Bft) 97,87 %
17.01.2022 11:26 6,1 C 5,6 C 5,6 C 97 % 1033,5 hPa 0,0 l/m 0 min 0 min 71 W/m 12,9 km/h (3 Bft) 95,35 %
17.01.2022 11:28 6,1 C 5,6 C 5,6 C 97 % 1033,5 hPa 0,0 l/m 0 min 2 min 63 W/m 12,9 km/h (3 Bft) 95,83 %
17.01.2022 11:30 6,1 C 5,6 C 5,6 C 97 % 1033,6 hPa 0,0 l/m 0 min 2 min 54 W/m 12,9 km/h (3 Bft) 93,88 %
17.01.2022 11:32 6,1 C 5,6 C 5,6 C 96 % 1033,5 hPa 0,0 l/m 0 min 2 min 54 W/m 16,1 km/h (3 Bft) 97,87 %
17.01.2022 11:34 6,1 C 5,6 C 5,0 C 96 % 1033,6 hPa 0,0 l/m 0 min 2 min 57 W/m 16,1 km/h (3 Bft) 97,87 %
17.01.2022 11:36 6,1 C 5,6 C 5,0 C 96 % 1033,6 hPa 0,0 l/m 0 min 2 min 51 W/m 19,3 km/h (3 Bft) 97,87 %
17.01.2022 11:38 6,1 C 5,6 C 5,0 C 96 % 1033,6 hPa 0,0 l/m 0 min 0 min 54 W/m 12,9 km/h (3 Bft) 97,83 %
17.01.2022 11:40 6,0 C 5,6 C 5,0 C 97 % 1033,6 hPa 0,0 l/m 0 min 0 min 59 W/m 6,4 km/h (2 Bft) 97,87 %
17.01.2022 11:42 6,0 C 5,6 C 5,0 C 97 % 1033,6 hPa 0,0 l/m 0 min 0 min 65 W/m 16,1 km/h (3 Bft) 100,00 %
17.01.2022 11:44 6,0 C 5,6 C 5,0 C 97 % 1033,6 hPa 0,2 l/m 0 min 0 min 63 W/m 12,9 km/h (3 Bft) 97,62 %
17.01.2022 11:46 6,0 C 5,6 C 5,0 C 97 % 1033,7 hPa 0,0 l/m 0 min 0 min 59 W/m 16,1 km/h (3 Bft) 98,08 %
17.01.2022 11:48 6,0 C 5,6 C 5,0 C 97 % 1033,6 hPa 0,0 l/m 0 min 0 min 65 W/m 16,1 km/h (3 Bft) 97,67 %
17.01.2022 11:50 6,0 C 5,6 C 5,0 C 97 % 1033,6 hPa 0,0 l/m 0 min 0 min 59 W/m 16,1 km/h (3 Bft) 97,83 %
17.01.2022 11:52 5,9 C 5,6 C 5,0 C 97 % 1033,7 hPa 0,0 l/m 0 min 0 min 59 W/m 16,1 km/h (3 Bft) 98,00 %
17.01.2022 11:54 6,0 C 5,6 C 5,0 C 97 % 1033,6 hPa 0,0 l/m 0 min 0 min 62 W/m 12,9 km/h (3 Bft) 97,87 %
17.01.2022 11:56 6,0 C 5,6 C 5,0 C 97 % 1033,7 hPa 0,0 l/m 0 min 0 min 66 W/m 16,1 km/h (3 Bft) 95,83 %
17.01.2022 11:58 6,0 C 5,6 C 5,0 C 97 % 1033,8 hPa 0,0 l/m 0 min 2 min 54 W/m 16,1 km/h (3 Bft) 97,87 %
17.01.2022 12:00 6,0 C 5,6 C 5,0 C 97 % 1033,9 hPa 0,0 l/m 0 min 0 min 54 W/m 16,1 km/h (3 Bft) 97,83 %
17.01.2022 12:02 6,0 C 5,6 C 5,0 C 97 % 1033,9 hPa 0,0 l/m 0 min 0 min 59 W/m 12,9 km/h (3 Bft) 97,87 %
17.01.2022 12:04 6,0 C 5,6 C 5,0 C 97 % 1033,9 hPa 0,0 l/m 0 min 0 min 76 W/m 16,1 km/h (3 Bft) 97,96 %
17.01.2022 12:06 6,0 C 5,6 C 5,0 C 97 % 1033,8 hPa 0,0 l/m 0 min 0 min 67 W/m 12,9 km/h (3 Bft) 97,92 %
17.01.2022 12:08 6,0 C 5,6 C 5,0 C 97 % 1033,9 hPa 0,0 l/m 0 min 0 min 47 W/m 12,9 km/h (3 Bft) 97,87 %
17.01.2022 12:10 6,0 C 5,6 C 5,0 C 97 % 1033,9 hPa 0,0 l/m 0 min 0 min 40 W/m 19,3 km/h (3 Bft) 100,00 %
17.01.2022 12:12 6,0 C 5,6 C 5,0 C 97 % 1034,0 hPa 0,0 l/m 0 min 0 min 42 W/m 9,7 km/h (2 Bft) 100,00 %
17.01.2022 12:14 6,0 C 5,6 C 5,0 C 97 % 1034,1 hPa 0,0 l/m 0 min 0 min 45 W/m 16,1 km/h (3 Bft) 100,00 %
17.01.2022 12:16 6,0 C 5,6 C 5,0 C 97 % 1034,0 hPa 0,0 l/m 0 min 2 min 42 W/m 16,1 km/h (3 Bft) 97,56 %
17.01.2022 12:18 6,0 C 5,6 C 5,0 C 97 % 1034,0 hPa 0,0 l/m 0 min 0 min 41 W/m 12,9 km/h (3 Bft) 100,00 %
17.01.2022 12:20 6,0 C 5,6 C 5,0 C 97 % 1034,0 hPa 0,0 l/m 0 min 0 min 38 W/m 16,1 km/h (3 Bft) 97,87 %
17.01.2022 12:22 5,9 C 5,6 C 5,0 C 97 % 1034,0 hPa 0,0 l/m 0 min 2 min 39 W/m 16,1 km/h (3 Bft) 98,00 %
17.01.2022 12:24 6,0 C 5,6 C 5,0 C 97 % 1033,8 hPa 0,0 l/m 0 min 0 min 46 W/m 16,1 km/h (3 Bft) 95,65 %
17.01.2022 12:26 6,0 C 5,6 C 5,0 C 97 % 1033,8 hPa 0,0 l/m 0 min 0 min 52 W/m 9,7 km/h (2 Bft) 97,87 %
17.01.2022 12:28 6,0 C 5,6 C 5,0 C 97 % 1033,8 hPa 0,0 l/m 0 min 2 min 55 W/m 12,9 km/h (3 Bft) 97,87 %
17.01.2022 12:30 6,0 C 5,6 C 5,0 C 97 % 1033,8 hPa 0,0 l/m 0 min 2 min 42 W/m 19,3 km/h (3 Bft) 97,87 %
17.01.2022 12:32 6,0 C 5,6 C 5,0 C 97 % 1033,8 hPa 0,0 l/m 0 min 0 min 41 W/m 9,7 km/h (2 Bft) 97,87 %
17.01.2022 12:34 6,0 C 5,6 C 5,0 C 97 % 1033,7 hPa 0,0 l/m 0 min 0 min 49 W/m 16,1 km/h (3 Bft) 97,87 %
17.01.2022 12:36 6,0 C 5,6 C 5,0 C 97 % 1033,6 hPa 0,0 l/m 0 min 0 min 68 W/m 12,9 km/h (3 Bft) 97,96 %
17.01.2022 12:38 6,0 C 5,6 C 5,0 C 97 % 1033,7 hPa 0,0 l/m 0 min 0 min 70 W/m 16,1 km/h (3 Bft) 97,87 %
17.01.2022 12:40 6,0 C 5,6 C 5,0 C 97 % 1033,7 hPa 0,0 l/m 0 min 0 min 63 W/m 12,9 km/h (3 Bft) 97,14 %
17.01.2022 12:42 6,1 C 5,6 C 5,0 C 97 % 1033,7 hPa 0,0 l/m 0 min 2 min 55 W/m 25,7 km/h (4 Bft) 96,43 %
17.01.2022 12:44 6,1 C 5,6 C 5,0 C 97 % 1033,7 hPa 0,0 l/m 0 min 0 min 51 W/m 16,1 km/h (3 Bft) 97,87 %
17.01.2022 12:46 6,1 C 5,6 C 5,0 C 97 % 1033,7 hPa 0,0 l/m 0 min 0 min 45 W/m 12,9 km/h (3 Bft) 97,87 %
17.01.2022 12:48 6,1 C 5,6 C 5,0 C 97 % 1033,9 hPa 0,0 l/m 0 min 0 min 48 W/m 12,9 km/h (3 Bft) 97,96 %
17.01.2022 12:50 6,1 C 5,6 C 5,0 C 97 % 1033,9 hPa 0,0 l/m 0 min 0 min 40 W/m 19,3 km/h (3 Bft) 97,87 %
17.01.2022 12:52 6,1 C 5,6 C 5,0 C 97 % 1034,0 hPa 0,0 l/m 0 min 0 min 34 W/m 19,3 km/h (3 Bft) 95,74 %
17.01.2022 12:54 6,1 C 5,6 C 5,0 C 97 % 1033,9 hPa 0,0 l/m 0 min 0 min 56 W/m 12,9 km/h (3 Bft) 97,14 %
17.01.2022 12:56 6,1 C 5,6 C 5,0 C 97 % 1034,0 hPa 0,0 l/m 0 min 0 min 99 W/m 19,3 km/h (3 Bft) 98,11 %
17.01.2022 12:58 6,1 C 5,6 C 5,0 C 97 % 1033,9 hPa 0,0 l/m 0 min 0 min 103 W/m 12,9 km/h (3 Bft) 95,92 %
17.01.2022 13:00 6,1 C 5,6 C 5,0 C 97 % 1033,9 hPa 0,0 l/m 0 min 2 min 96 W/m 12,9 km/h (3 Bft) 98,00 %
17.01.2022 13:02 6,2 C 6,1 C 5,0 C 97 % 1033,8 hPa 0,0 l/m 0 min 2 min 78 W/m 12,9 km/h (3 Bft) 94,29 %
17.01.2022 13:04 6,2 C 6,1 C 5,0 C 97 % 1033,8 hPa 0,0 l/m 0 min 0 min 98 W/m 16,1 km/h (3 Bft) 97,87 %
17.01.2022 13:06 6,2 C 6,1 C 5,0 C 97 % 1033,9 hPa 0,0 l/m 0 min 0 min 97 W/m 22,5 km/h (4 Bft) 98,21 %
17.01.2022 13:08 6,2 C 6,1 C 5,0 C 97 % 1033,8 hPa 0,0 l/m 0 min 0 min 58 W/m 16,1 km/h (3 Bft) 100,00 %
17.01.2022 13:10 6,2 C 6,1 C 5,0 C 97 % 1033,8 hPa 0,0 l/m 0 min 0 min 80 W/m 22,5 km/h (4 Bft) 97,83 %
17.01.2022 13:12 6,2 C 6,1 C 5,0 C 97 % 1033,8 hPa 0,0 l/m 0 min 0 min 82 W/m 22,5 km/h (4 Bft) 98,00 %
17.01.2022 13:14 6,2 C 6,1 C 5,0 C 97 % 1033,8 hPa 0,0 l/m 0 min 0 min 50 W/m 12,9 km/h (3 Bft) 100,00 %
17.01.2022 13:16 6,2 C 6,1 C 5,0 C 97 % 1033,6 hPa 0,0 l/m 0 min 0 min 51 W/m 16,1 km/h (3 Bft) 100,00 %
17.01.2022 13:18 6,2 C 5,6 C 5,0 C 97 % 1033,6 hPa 0,0 l/m 0 min 0 min 79 W/m 19,3 km/h (3 Bft) 98,11 %
17.01.2022 13:20 6,2 C 6,1 C 5,0 C 97 % 1033,5 hPa 0,0 l/m 0 min 0 min 91 W/m 22,5 km/h (4 Bft) 98,00 %
17.01.2022 13:22 6,2 C 6,1 C 5,6 C 97 % 1033,5 hPa 0,0 l/m 0 min 0 min 103 W/m 16,1 km/h (3 Bft) 100,00 %
17.01.2022 13:24 6,2 C 6,1 C 5,0 C 97 % 1033,6 hPa 0,0 l/m 0 min 0 min 67 W/m 16,1 km/h (3 Bft) 100,00 %
17.01.2022 13:26 6,2 C 5,6 C 5,0 C 97 % 1033,9 hPa 0,0 l/m 0 min 0 min 39 W/m 16,1 km/h (3 Bft) 100,00 %
17.01.2022 13:28 6,2 C 5,6 C 5,0 C 97 % 1033,9 hPa 0,0 l/m 0 min 0 min 65 W/m 12,9 km/h (3 Bft) 97,87 %
17.01.2022 13:30 6,2 C 6,1 C 5,6 C 97 % 1034,0 hPa 0,0 l/m 0 min 0 min 86 W/m 9,7 km/h (2 Bft) 100,00 %
17.01.2022 13:32 6,3 C 6,1 C 5,0 C 97 % 1033,9 hPa 0,0 l/m 0 min 0 min 62 W/m 12,9 km/h (3 Bft) 95,65 %
17.01.2022 13:34 6,3 C 6,1 C 5,0 C 97 % 1033,9 hPa 0,0 l/m 0 min 0 min 50 W/m 16,1 km/h (3 Bft) 100,00 %
17.01.2022 13:36 6,3 C 6,1 C 5,0 C 97 % 1034,0 hPa 0,0 l/m 0 min 0 min 59 W/m 12,9 km/h (3 Bft) 100,00 %
17.01.2022 13:38 6,3 C 6,1 C 5,0 C 97 % 1033,9 hPa 0,0 l/m 0 min 0 min 69 W/m 16,1 km/h (3 Bft) 97,87 %
17.01.2022 13:40 6,3 C 6,1 C 5,0 C 97 % 1033,9 hPa 0,0 l/m 0 min 0 min 58 W/m 12,9 km/h (3 Bft) 96,00 %
17.01.2022 13:42 6,3 C 6,1 C 5,0 C 97 % 1034,0 hPa 0,0 l/m 0 min 0 min 32 W/m 25,7 km/h (4 Bft) 93,62 %
17.01.2022 13:44 6,3 C 6,1 C 5,0 C 97 % 1034,1 hPa 0,0 l/m 0 min 0 min 34 W/m 9,7 km/h (2 Bft) 97,14 %
17.01.2022 13:46 6,3 C 5,6 C 5,0 C 97 % 1033,9 hPa 0,0 l/m 0 min 0 min 51 W/m 19,3 km/h (3 Bft) 95,74 %
17.01.2022 13:48 6,3 C 5,6 C 5,0 C 97 % 1033,8 hPa 0,0 l/m 0 min 2 min 78 W/m 16,1 km/h (3 Bft) 94,23 %
17.01.2022 13:50 6,3 C 5,6 C 5,0 C 97 % 1033,8 hPa 0,0 l/m 0 min 0 min 59 W/m 16,1 km/h (3 Bft) 95,74 %
17.01.2022 13:52 6,3 C 5,6 C 5,0 C 97 % 1033,8 hPa 0,0 l/m 0 min 0 min 52 W/m 19,3 km/h (3 Bft) 96,00 %
17.01.2022 13:54 6,3 C 5,6 C 5,0 C 97 % 1033,9 hPa 0,0 l/m 0 min 0 min 56 W/m 12,9 km/h (3 Bft) 96,00 %
17.01.2022 13:56 6,3 C 5,6 C 5,0 C 97 % 1033,8 hPa 0,0 l/m 0 min 0 min 64 W/m 12,9 km/h (3 Bft) 95,65 %
17.01.2022 13:58 6,3 C 6,1 C 5,0 C 97 % 1033,7 hPa 0,0 l/m 0 min 2 min 62 W/m 12,9 km/h (3 Bft) 93,62 %
17.01.2022 14:00 6,3 C 6,1 C 5,0 C 97 % 1033,6 hPa 0,0 l/m 0 min 2 min 56 W/m 12,9 km/h (3 Bft) 94,29 %
17.01.2022 14:02 6,3 C 6,1 C 5,0 C 97 % 1033,8 hPa 0,0 l/m 0 min 0 min 50 W/m 12,9 km/h (3 Bft) 96,43 %
17.01.2022 14:04 6,3 C 6,1 C 5,0 C 97 % 1033,8 hPa 0,0 l/m 0 min 0 min 56 W/m 16,1 km/h (3 Bft) 95,74 %
17.01.2022 14:06 6,3 C 6,1 C 5,0 C 97 % 1033,8 hPa 0,0 l/m 0 min 0 min 62 W/m 12,9 km/h (3 Bft) 95,74 %
17.01.2022 14:08 6,3 C 6,1 C 5,0 C 97 % 1033,8 hPa 0,0 l/m 0 min 2 min 63 W/m 6,4 km/h (2 Bft) 95,65 %
17.01.2022 14:10 6,3 C 6,1 C 5,0 C 97 % 1033,9 hPa 0,0 l/m 0 min 0 min 59 W/m 9,7 km/h (2 Bft) 92,00 %
17.01.2022 14:12 6,3 C 6,1 C 5,0 C 97 % 1034,0 hPa 0,0 l/m 0 min 0 min 48 W/m 16,1 km/h (3 Bft) 95,74 %
17.01.2022 14:14 6,3 C 6,1 C 5,6 C 97 % 1034,1 hPa 0,0 l/m 0 min 0 min 41 W/m 9,7 km/h (2 Bft) 95,74 %
17.01.2022 14:16 6,3 C 6,1 C 5,6 C 97 % 1034,0 hPa 0,0 l/m 0 min 0 min 41 W/m 16,1 km/h (3 Bft) 100,00 %
17.01.2022 14:18 6,3 C 6,1 C 5,6 C 97 % 1034,1 hPa 0,0 l/m 0 min 0 min 40 W/m 19,3 km/h (3 Bft) 96,43 %
17.01.2022 14:20 6,3 C 6,1 C 5,0 C 97 % 1033,9 hPa 0,0 l/m 0 min 0 min 43 W/m 9,7 km/h (2 Bft) 97,83 %
17.01.2022 14:22 6,3 C 6,1 C 5,0 C 97 % 1033,9 hPa 0,0 l/m 0 min 0 min 43 W/m 19,3 km/h (3 Bft) 97,87 %
17.01.2022 14:24 6,3 C 6,1 C 5,0 C 97 % 1033,7 hPa 0,0 l/m 0 min 0 min 39 W/m 16,1 km/h (3 Bft) 100,00 %
17.01.2022 14:26 6,3 C 6,1 C 5,0 C 97 % 1033,8 hPa 0,0 l/m 0 min 0 min 29 W/m 12,9 km/h (3 Bft) 97,14 %
17.01.2022 14:28 6,3 C 5,6 C 5,0 C 97 % 1033,8 hPa 0,0 l/m 0 min 0 min 24 W/m 19,3 km/h (3 Bft) 98,11 %
17.01.2022 14:30 6,3 C 5,6 C 5,0 C 97 % 1033,8 hPa 0,0 l/m 0 min 0 min 32 W/m 16,1 km/h (3 Bft) 97,87 %
17.01.2022 14:32 6,3 C 6,1 C 5,0 C 97 % 1033,9 hPa 0,0 l/m 0 min 0 min 39 W/m 16,1 km/h (3 Bft) 97,96 %
17.01.2022 14:34 6,3 C 6,1 C 5,0 C 97 % 1033,8 hPa 0,0 l/m 0 min 0 min 51 W/m 9,7 km/h (2 Bft) 100,00 %
17.01.2022 14:36 6,3 C 6,1 C 5,6 C 97 % 1033,9 hPa 0,0 l/m 0 min 0 min 55 W/m 12,9 km/h (3 Bft) 100,00 %
17.01.2022 14:38 6,3 C 6,1 C 5,6 C 97 % 1033,9 hPa 0,0 l/m 0 min 0 min 53 W/m 12,9 km/h (3 Bft) 100,00 %
17.01.2022 14:40 6,3 C 6,1 C 5,6 C 97 % 1033,7 hPa 0,0 l/m 0 min 0 min 48 W/m 6,4 km/h (2 Bft) 100,00 %
17.01.2022 14:42 6,3 C 6,1 C 5,6 C 97 % 1033,8 hPa 0,0 l/m 0 min 0 min 47 W/m 12,9 km/h (3 Bft) 100,00 %
17.01.2022 14:44 6,3 C 6,1 C 5,6 C 97 % 1033,8 hPa 0,0 l/m 0 min 0 min 56 W/m 9,7 km/h (2 Bft) 100,00 %
17.01.2022 14:46 6,4 C 6,1 C 5,6 C 97 % 1033,9 hPa 0,0 l/m 0 min 0 min 40 W/m 12,9 km/h (3 Bft) 97,83 %
17.01.2022 14:48 6,4 C 6,1 C 5,6 C 97 % 1034,0 hPa 0,0 l/m 0 min 0 min 30 W/m 16,1 km/h (3 Bft) 100,00 %
17.01.2022 14:50 6,3 C 6,1 C 5,6 C 97 % 1034,2 hPa 0,0 l/m 0 min 0 min 31 W/m 9,7 km/h (2 Bft) 100,00 %
17.01.2022 14:52 6,4 C 6,1 C 5,6 C 97 % 1034,1 hPa 0,0 l/m 0 min 0 min 41 W/m 12,9 km/h (3 Bft) 98,00 %
17.01.2022 14:54 6,4 C 6,1 C 5,6 C 97 % 1034,1 hPa 0,0 l/m 0 min 0 min 46 W/m 6,4 km/h (2 Bft) 100,00 %
17.01.2022 14:56 6,4 C 6,1 C 5,6 C 97 % 1034,1 hPa 0,0 l/m 0 min 0 min 45 W/m 12,9 km/h (3 Bft) 100,00 %
17.01.2022 14:58 6,4 C 6,1 C 5,6 C 97 % 1034,1 hPa 0,0 l/m 0 min 0 min 44 W/m 12,9 km/h (3 Bft) 100,00 %
17.01.2022 15:00 6,4 C 6,1 C 5,6 C 97 % 1034,1 hPa 0,0 l/m 0 min 0 min 47 W/m 16,1 km/h (3 Bft) 100,00 %
17.01.2022 15:02 6,4 C 6,1 C 5,6 C 97 % 1034,0 hPa 0,0 l/m 0 min 0 min 49 W/m 12,9 km/h (3 Bft) 100,00 %
17.01.2022 15:04 6,4 C 6,1 C 5,6 C 97 % 1033,9 hPa 0,0 l/m 0 min 0 min 55 W/m 16,1 km/h (3 Bft) 100,00 %
17.01.2022 15:06 6,4 C 6,1 C 5,6 C 97 % 1033,8 hPa 0,0 l/m 0 min 0 min 55 W/m 16,1 km/h (3 Bft) 100,00 %
17.01.2022 15:08 6,5 C 6,1 C 5,6 C 97 % 1033,8 hPa 0,0 l/m 0 min 0 min 53 W/m 12,9 km/h (3 Bft) 100,00 %
17.01.2022 15:10 6,5 C 6,1 C 5,6 C 97 % 1033,7 hPa 0,0 l/m 0 min 0 min 47 W/m 12,9 km/h (3 Bft) 100,00 %
17.01.2022 15:12 6,5 C 6,1 C 5,6 C 98 % 1033,8 hPa 0,0 l/m 0 min 0 min 51 W/m 19,3 km/h (3 Bft) 97,37 %
17.01.2022 15:14 6,5 C 6,1 C 5,6 C 98 % 1033,7 hPa 0,0 l/m 0 min 0 min 45 W/m 12,9 km/h (3 Bft) 98,00 %
17.01.2022 15:16 6,5 C 6,1 C 5,6 C 98 % 1033,7 hPa 0,0 l/m 0 min 0 min 44 W/m 9,7 km/h (2 Bft) 95,74 %
17.01.2022 15:18 6,5 C 6,1 C 5,6 C 98 % 1033,8 hPa 0,0 l/m 0 min 0 min 58 W/m 16,1 km/h (3 Bft) 97,83 %
17.01.2022 15:20 6,5 C 6,1 C 5,6 C 98 % 1033,8 hPa 0,0 l/m 0 min 0 min 56 W/m 12,9 km/h (3 Bft) 97,87 %
17.01.2022 15:22 6,5 C 6,1 C 5,6 C 98 % 1033,8 hPa 0,0 l/m 0 min 0 min 53 W/m 12,9 km/h (3 Bft) 97,87 %
17.01.2022 15:24 6,6 C 6,1 C 5,6 C 98 % 1033,8 hPa 0,0 l/m 0 min 0 min 51 W/m 12,9 km/h (3 Bft) 97,87 %
17.01.2022 15:26 6,6 C 6,1 C 5,6 C 97 % 1033,8 hPa 0,0 l/m 0 min 0 min 43 W/m 16,1 km/h (3 Bft) 95,74 %
17.01.2022 15:28 6,6 C 6,1 C 5,6 C 97 % 1033,8 hPa 0,0 l/m 0 min 0 min 42 W/m 12,9 km/h (3 Bft) 97,73 %
17.01.2022 15:30 6,6 C 6,1 C 5,6 C 97 % 1033,7 hPa 0,0 l/m 0 min 0 min 49 W/m 16,1 km/h (3 Bft) 97,96 %
17.01.2022 15:32 6,6 C 6,1 C 5,6 C 97 % 1033,8 hPa 0,0 l/m 0 min 0 min 46 W/m 16,1 km/h (3 Bft) 96,23 %
17.01.2022 15:34 6,6 C 6,1 C 5,6 C 97 % 1033,9 hPa 0,0 l/m 0 min 0 min 40 W/m 16,1 km/h (3 Bft) 100,00 %
17.01.2022 15:36 6,6 C 6,1 C 5,6 C 97 % 1034,0 hPa 0,0 l/m 0 min 0 min 42 W/m 22,5 km/h (4 Bft) 93,62 %
17.01.2022 15:38 6,7 C 6,1 C 5,6 C 97 % 1034,0 hPa 0,0 l/m 0 min 0 min 37 W/m 19,3 km/h (3 Bft) 97,87 %
17.01.2022 15:40 6,7 C 6,1 C 5,6 C 97 % 1034,0 hPa 0,0 l/m 0 min 0 min 33 W/m 16,1 km/h (3 Bft) 95,74 %
17.01.2022 15:42 6,7 C 6,1 C 5,6 C 97 % 1034,0 hPa 0,0 l/m 0 min 0 min 33 W/m 12,9 km/h (3 Bft) 95,65 %
17.01.2022 15:44 6,7 C 6,1 C 5,6 C 97 % 1034,0 hPa 0,0 l/m 0 min 0 min 31 W/m 12,9 km/h (3 Bft) 95,74 %
17.01.2022 15:46 6,7 C 6,1 C 5,6 C 97 % 1034,0 hPa 0,0 l/m 0 min 0 min 29 W/m 19,3 km/h (3 Bft) 95,74 %
17.01.2022 15:48 6,7 C 6,1 C 5,6 C 97 % 1034,1 hPa 0,0 l/m 0 min 0 min 24 W/m 22,5 km/h (4 Bft) 96,00 %
17.01.2022 15:50 6,8 C 6,1 C 5,6 C 97 % 1034,1 hPa 0,0 l/m 0 min 0 min 23 W/m 22,5 km/h (4 Bft) 95,74 %
17.01.2022 15:52 6,8 C 6,1 C 5,6 C 97 % 1034,1 hPa 0,0 l/m 0 min 0 min 25 W/m 9,7 km/h (2 Bft) 93,18 %
17.01.2022 15:54 6,8 C 6,1 C 5,6 C 97 % 1034,2 hPa 0,0 l/m 0 min 0 min 27 W/m 16,1 km/h (3 Bft) 95,65 %
17.01.2022 15:56 6,8 C 6,7 C 6,1 C 97 % 1034,2 hPa 0,0 l/m 0 min 0 min 29 W/m 12,9 km/h (3 Bft) 94,00 %
17.01.2022 15:58 6,8 C 6,7 C 6,1 C 97 % 1034,3 hPa 0,0 l/m 0 min 0 min 23 W/m 9,7 km/h (2 Bft) 95,74 %
17.01.2022 16:00 6,8 C 6,7 C 6,1 C 97 % 1034,4 hPa 0,0 l/m 0 min 0 min 18 W/m 16,1 km/h (3 Bft) 97,87 %
17.01.2022 16:02 6,8 C 6,7 C 6,1 C 97 % 1034,4 hPa 0,0 l/m 0 min 0 min 18 W/m 12,9 km/h (3 Bft) 95,74 %
17.01.2022 16:04 6,8 C 6,7 C 6,1 C 97 % 1034,6 hPa 0,0 l/m 0 min 0 min 19 W/m 6,4 km/h (2 Bft) 93,48 %
17.01.2022 16:06 6,8 C 6,7 C 6,1 C 97 % 1034,6 hPa 0,0 l/m 0 min 0 min 22 W/m 9,7 km/h (2 Bft) 97,87 %
17.01.2022 16:08 6,8 C 6,7 C 5,6 C 97 % 1034,5 hPa 0,0 l/m 0 min 0 min 21 W/m 9,7 km/h (2 Bft) 98,15 %
17.01.2022 16:10 6,8 C 6,1 C 5,6 C 97 % 1034,5 hPa 0,0 l/m 0 min 0 min 18 W/m 12,9 km/h (3 Bft) 97,87 %
17.01.2022 16:12 6,8 C 6,1 C 6,1 C 97 % 1034,6 hPa 0,0 l/m 0 min 0 min 19 W/m 9,7 km/h (2 Bft) 94,29 %
17.01.2022 16:14 6,8 C 6,1 C 6,1 C 97 % 1034,5 hPa 0,0 l/m 0 min 0 min 18 W/m 9,7 km/h (2 Bft) 98,08 %
17.01.2022 16:16 6,8 C 6,1 C 6,1 C 97 % 1034,5 hPa 0,0 l/m 0 min 0 min 15 W/m 9,7 km/h (2 Bft) 100,00 %
17.01.2022 16:18 6,8 C 6,1 C 5,6 C 97 % 1034,5 hPa 0,0 l/m 0 min 0 min 12 W/m 16,1 km/h (3 Bft) 100,00 %
17.01.2022 16:20 6,8 C 6,1 C 5,6 C 97 % 1034,5 hPa 0,0 l/m 0 min 0 min 12 W/m 9,7 km/h (2 Bft) 97,14 %
17.01.2022 16:22 6,8 C 6,1 C 5,6 C 97 % 1034,6 hPa 0,0 l/m 0 min 0 min 12 W/m 16,1 km/h (3 Bft) 100,00 %
17.01.2022 16:24 6,8 C 6,1 C 5,6 C 97 % 1034,6 hPa 0,0 l/m 0 min 0 min 11 W/m 12,9 km/h (3 Bft) 96,30 %
17.01.2022 16:26 6,8 C 6,1 C 5,6 C 97 % 1034,6 hPa 0,0 l/m 0 min 0 min 11 W/m 6,4 km/h (2 Bft) 95,65 %
17.01.2022 16:28 6,8 C 6,1 C 5,6 C 97 % 1034,7 hPa 0,0 l/m 0 min 0 min 11 W/m 9,7 km/h (2 Bft) 97,87 %
17.01.2022 16:30 6,8 C 6,1 C 5,6 C 97 % 1034,7 hPa 0,0 l/m 0 min 0 min 9 W/m 6,4 km/h (2 Bft) 97,87 %
17.01.2022 16:32 6,8 C 6,1 C 5,6 C 97 % 1034,8 hPa 0,0 l/m 0 min 0 min 11 W/m 12,9 km/h (3 Bft) 97,87 %
17.01.2022 16:34 6,8 C 6,1 C 5,6 C 97 % 1034,8 hPa 0,0 l/m 0 min 0 min 11 W/m 6,4 km/h (2 Bft) 97,87 %
17.01.2022 16:36 6,8 C 6,1 C 5,6 C 96 % 1034,8 hPa 0,0 l/m 0 min 0 min 19 W/m 6,4 km/h (2 Bft) 97,83 %
17.01.2022 16:38 6,8 C 6,1 C 5,6 C 97 % 1034,8 hPa 0,0 l/m 2 min 0 min 21 W/m 6,4 km/h (2 Bft) 97,22 %
17.01.2022 16:40 6,8 C 6,1 C 5,6 C 97 % 1034,8 hPa 0,0 l/m 0 min 0 min 15 W/m 9,7 km/h (2 Bft) 98,04 %
17.01.2022 16:42 6,8 C 6,1 C 5,6 C 96 % 1034,9 hPa 0,0 l/m 0 min 0 min 9 W/m 6,4 km/h (2 Bft) 98,15 %
17.01.2022 16:44 6,8 C 6,1 C 5,6 C 96 % 1035,0 hPa 0,0 l/m 0 min 0 min 9 W/m 6,4 km/h (2 Bft) 97,87 %
17.01.2022 16:46 6,8 C 6,1 C 5,6 C 97 % 1035,0 hPa 0,0 l/m 0 min 0 min 7 W/m 9,7 km/h (2 Bft) 97,87 %
17.01.2022 16:48 6,8 C 6,1 C 5,6 C 97 % 1035,1 hPa 0,0 l/m 0 min 0 min 0 W/m 9,7 km/h (2 Bft) 97,83 %
17.01.2022 16:50 6,8 C 6,1 C 5,6 C 97 % 1035,2 hPa 0,0 l/m 0 min 0 min 0 W/m 6,4 km/h (2 Bft) 94,44 %
17.01.2022 16:52 6,8 C 6,1 C 5,6 C 97 % 1035,2 hPa 0,0 l/m 0 min 0 min 0 W/m 9,7 km/h (2 Bft) 96,08 %
17.01.2022 16:54 6,8 C 6,1 C 5,6 C 97 % 1035,1 hPa 0,0 l/m 0 min 0 min 0 W/m 9,7 km/h (2 Bft) 97,87 %
17.01.2022 16:56 6,8 C 6,1 C 5,6 C 97 % 1035,0 hPa 0,0 l/m 0 min 0 min 0 W/m 9,7 km/h (2 Bft) 95,74 %
17.01.2022 16:58 6,8 C 6,1 C 5,6 C 96 % 1035,0 hPa 0,0 l/m 0 min 0 min 0 W/m 6,4 km/h (2 Bft) 95,74 %
17.01.2022 17:00 6,8 C 6,1 C 5,6 C 96 % 1035,0 hPa 0,0 l/m 0 min 0 min 0 W/m 9,7 km/h (2 Bft) 95,74 %
17.01.2022 17:02 6,8 C 6,1 C 5,6 C 96 % 1034,9 hPa 0,0 l/m 0 min 0 min 0 W/m 12,9 km/h (3 Bft) 95,65 %
17.01.2022 17:04 6,8 C 6,1 C 5,6 C 97 % 1035,0 hPa 0,0 l/m 0 min 0 min 0 W/m 12,9 km/h (3 Bft) 97,87 %
17.01.2022 17:06 6,8 C 6,1 C 5,6 C 97 % 1035,0 hPa 0,0 l/m 0 min 0 min 0 W/m 12,9 km/h (3 Bft) 97,87 %
17.01.2022 17:08 6,8 C 6,1 C 5,6 C 96 % 1034,9 hPa 0,0 l/m 0 min 0 min 0 W/m 9,7 km/h (2 Bft) 100,00 %
17.01.2022 17:10 6,8 C 6,1 C 5,6 C 97 % 1035,0 hPa 0,0 l/m 0 min 0 min 0 W/m 12,9 km/h (3 Bft) 100,00 %
17.01.2022 17:12 6,9 C 6,1 C 5,6 C 96 % 1035,1 hPa 0,0 l/m 0 min 0 min 0 W/m 6,4 km/h (2 Bft) 100,00 %
17.01.2022 17:14 6,9 C 6,1 C 5,6 C 96 % 1035,2 hPa 0,0 l/m 0 min 0 min 0 W/m 6,4 km/h (2 Bft) 100,00 %
17.01.2022 17:16 6,9 C 6,1 C 5,6 C 96 % 1035,4 hPa 0,0 l/m 0 min 0 min 0 W/m 6,4 km/h (2 Bft) 100,00 %
17.01.2022 17:18 6,9 C 6,1 C 5,6 C 96 % 1035,4 hPa 0,0 l/m 0 min 0 min 0 W/m 12,9 km/h (3 Bft) 100,00 %
17.01.2022 17:20 6,9 C 6,1 C 5,6 C 97 % 1035,4 hPa 0,0 l/m 0 min 0 min 0 W/m 9,7 km/h (2 Bft) 100,00 %
17.01.2022 17:22 6,9 C 6,1 C 5,6 C 97 % 1035,4 hPa 0,0 l/m 0 min 0 min 0 W/m 9,7 km/h (2 Bft) 100,00 %
17.01.2022 17:24 6,9 C 6,7 C 5,6 C 97 % 1035,4 hPa 0,0 l/m 0 min 0 min 0 W/m 9,7 km/h (2 Bft) 100,00 %
17.01.2022 17:26 6,9 C 6,7 C 5,6 C 97 % 1035,4 hPa 0,0 l/m 0 min 0 min 0 W/m 12,9 km/h (3 Bft) 100,00 %
17.01.2022 17:28 6,9 C 6,7 C 6,1 C 97 % 1035,4 hPa 0,0 l/m 0 min 0 min 0 W/m 12,9 km/h (3 Bft) 97,87 %
17.01.2022 17:30 6,9 C 6,7 C 6,1 C 97 % 1035,3 hPa 0,0 l/m 0 min 0 min 0 W/m 16,1 km/h (3 Bft) 100,00 %
17.01.2022 17:32 6,9 C 6,7 C 5,6 C 97 % 1035,3 hPa 0,0 l/m 0 min 0 min 0 W/m 9,7 km/h (2 Bft) 100,00 %
17.01.2022 17:34 6,9 C 6,7 C 5,6 C 97 % 1035,4 hPa 0,0 l/m 0 min 0 min 0 W/m 12,9 km/h (3 Bft) 100,00 %
17.01.2022 17:36 6,9 C 6,1 C 5,6 C 97 % 1035,4 hPa 0,0 l/m 0 min 0 min 0 W/m 9,7 km/h (2 Bft) 95,74 %
17.01.2022 17:38 7,0 C 6,7 C 5,6 C 97 % 1035,6 hPa 0,0 l/m 0 min 0 min 0 W/m 12,9 km/h (3 Bft) 97,83 %
17.01.2022 17:40 7,0 C 6,7 C 5,6 C 96 % 1035,6 hPa 0,0 l/m 0 min 0 min 0 W/m 9,7 km/h (2 Bft) 97,87 %
17.01.2022 17:44 7,0 C 6,7 C 5,6 C 96 % 1035,5 hPa 0,0 l/m 0 min 0 min 0 W/m 16,1 km/h (3 Bft) 98,04 %
17.01.2022 17:46 7,0 C 6,7 C 5,6 C 96 % 1035,4 hPa 0,0 l/m 0 min 0 min 0 W/m 12,9 km/h (3 Bft) 97,87 %
17.01.2022 17:48 7,0 C 6,7 C 5,6 C 96 % 1035,3 hPa 0,0 l/m 0 min 0 min 0 W/m 12,9 km/h (3 Bft) 97,83 %
17.01.2022 17:50 6,9 C 6,1 C 5,6 C 96 % 1035,4 hPa 0,0 l/m 0 min 0 min 0 W/m 9,7 km/h (2 Bft) 97,87 %
17.01.2022 17:52 6,9 C 6,1 C 5,6 C 96 % 1035,4 hPa 0,0 l/m 0 min 0 min 0 W/m 9,7 km/h (2 Bft) 95,74 %
17.01.2022 17:54 6,9 C 6,1 C 5,6 C 96 % 1035,5 hPa 0,0 l/m 0 min 0 min 0 W/m 9,7 km/h (2 Bft) 95,83 %
17.01.2022 17:56 6,9 C 6,1 C 5,6 C 96 % 1035,5 hPa 0,0 l/m 0 min 0 min 0 W/m 9,7 km/h (2 Bft) 97,87 %
17.01.2022 17:58 6,9 C 6,1 C 5,6 C 96 % 1035,5 hPa 0,0 l/m 0 min 0 min 0 W/m 6,4 km/h (2 Bft) 97,83 %
17.01.2022 18:00 6,9 C 6,1 C 5,6 C 96 % 1035,4 hPa 0,0 l/m 0 min 0 min 0 W/m 6,4 km/h (2 Bft) 97,87 %
17.01.2022 18:02 6,9 C 6,1 C 5,6 C 96 % 1035,4 hPa 0,0 l/m 0 min 0 min 0 W/m 6,4 km/h (2 Bft) 95,74 %
17.01.2022 18:04 6,9 C 6,1 C 5,6 C 96 % 1035,4 hPa 0,0 l/m 0 min 0 min 0 W/m 12,9 km/h (3 Bft) 97,56 %
17.01.2022 18:08 6,9 C 6,1 C 5,6 C 96 % 1035,6 hPa 0,0 l/m 0 min 0 min 0 W/m 9,7 km/h (2 Bft) 96,04 %
17.01.2022 18:10 6,9 C 6,1 C 5,6 C 96 % 1035,7 hPa 0,0 l/m 0 min 0 min 0 W/m 9,7 km/h (2 Bft) 93,48 %
17.01.2022 18:12 6,9 C 6,1 C 5,6 C 96 % 1035,7 hPa 0,0 l/m 0 min 0 min 0 W/m 9,7 km/h (2 Bft) 97,87 %
17.01.2022 18:14 6,9 C 6,1 C 5,6 C 96 % 1035,7 hPa 0,0 l/m 0 min 0 min 0 W/m 9,7 km/h (2 Bft) 97,87 %
17.01.2022 18:16 6,9 C 6,1 C 5,6 C 96 % 1035,6 hPa 0,0 l/m 0 min 0 min 0 W/m 9,7 km/h (2 Bft) 95,74 %
17.01.2022 18:18 6,9 C 6,1 C 5,6 C 96 % 1035,7 hPa 0,0 l/m 0 min 0 min 0 W/m 3,2 km/h (1 Bft) 97,87 %
17.01.2022 18:20 6,9 C 6,7 C 5,6 C 96 % 1035,7 hPa 0,0 l/m 0 min 0 min 0 W/m 6,4 km/h (2 Bft) 97,87 %
17.01.2022 18:22 6,9 C 6,1 C 5,6 C 96 % 1035,8 hPa 0,0 l/m 0 min 0 min 0 W/m 9,7 km/h (2 Bft) 97,83 %
17.01.2022 18:24 6,9 C 6,7 C 5,6 C 96 % 1035,9 hPa 0,0 l/m 0 min 0 min 0 W/m 9,7 km/h (2 Bft) 95,74 %
17.01.2022 18:26 7,0 C 6,7 C 5,6 C 96 % 1035,9 hPa 0,0 l/m 0 min 0 min 0 W/m 12,9 km/h (3 Bft) 97,87 %
17.01.2022 18:28 7,0 C 6,7 C 5,6 C 96 % 1035,9 hPa 0,0 l/m 0 min 0 min 0 W/m 6,4 km/h (2 Bft) 95,74 %
17.01.2022 18:30 7,0 C 6,7 C 5,6 C 96 % 1035,8 hPa 0,0 l/m 0 min 0 min 0 W/m 9,7 km/h (2 Bft) 47,37 %
17.01.2022 18:32 6,9 C 6,7 C 5,6 C 96 % 1035,7 hPa 0,0 l/m 0 min 0 min 0 W/m 9,7 km/h (2 Bft) 95,74 %
17.01.2022 18:34 7,0 C 6,7 C 5,6 C 96 % 1035,7 hPa 0,0 l/m 0 min 0 min 0 W/m 6,4 km/h (2 Bft) 97,83 %
17.01.2022 18:36 7,0 C 6,7 C 5,6 C 96 % 1035,7 hPa 0,0 l/m 0 min 0 min 0 W/m 19,3 km/h (3 Bft) 97,87 %
17.01.2022 18:38 7,0 C 6,7 C 5,6 C 96 % 1035,8 hPa 0,0 l/m 0 min 0 min 0 W/m 12,9 km/h (3 Bft) 95,74 %
17.01.2022 18:40 7,0 C 6,7 C 5,6 C 96 % 1035,9 hPa 0,0 l/m 0 min 0 min 0 W/m 9,7 km/h (2 Bft) 97,87 %
17.01.2022 18:42 7,0 C 6,7 C 6,1 C 96 % 1035,9 hPa 0,0 l/m 0 min 0 min 0 W/m 12,9 km/h (3 Bft) 97,87 %
17.01.2022 18:44 7,1 C 6,7 C 6,1 C 96 % 1035,9 hPa 0,0 l/m 0 min 0 min 0 W/m 12,9 km/h (3 Bft) 95,74 %
17.01.2022 18:46 7,1 C 6,7 C 6,1 C 96 % 1036,0 hPa 0,0 l/m 0 min 0 min 0 W/m 12,9 km/h (3 Bft) 95,65 %
17.01.2022 18:48 7,1 C 6,7 C 6,1 C 96 % 1036,1 hPa 0,0 l/m 0 min 0 min 0 W/m 12,9 km/h (3 Bft) 97,87 %
17.01.2022 18:50 7,1 C 6,7 C 6,1 C 96 % 1036,1 hPa 0,0 l/m 0 min 0 min 0 W/m 9,7 km/h (2 Bft) 95,74 %
17.01.2022 18:52 7,1 C 6,7 C 5,6 C 96 % 1036,0 hPa 0,0 l/m 0 min 0 min 0 W/m 6,4 km/h (2 Bft) 97,87 %
17.01.2022 18:54 7,1 C 6,7 C 5,6 C 96 % 1036,0 hPa 0,0 l/m 0 min 0 min 0 W/m 6,4 km/h (2 Bft) 97,87 %
17.01.2022 18:56 7,1 C 6,7 C 5,6 C 96 % 1036,1 hPa 0,0 l/m 0 min 0 min 0 W/m 12,9 km/h (3 Bft) 100,00 %
17.01.2022 18:58 7,1 C 6,7 C 5,6 C 96 % 1036,1 hPa 0,0 l/m 0 min 0 min 0 W/m 12,9 km/h (3 Bft) 100,00 %
17.01.2022 19:00 7,1 C 6,7 C 5,6 C 96 % 1036,2 hPa 0,0 l/m 0 min 0 min 0 W/m 9,7 km/h (2 Bft) 97,87 %
17.01.2022 19:02 7,1 C 6,7 C 6,1 C 96 % 1036,1 hPa 0,0 l/m 0 min 0 min 0 W/m 12,9 km/h (3 Bft) 93,62 %
17.01.2022 19:04 7,1 C 6,7 C 5,6 C 96 % 1036,0 hPa 0,0 l/m 0 min 0 min 0 W/m 19,3 km/h (3 Bft) 97,87 %
17.01.2022 19:06 7,1 C 6,7 C 5,6 C 96 % 1036,0 hPa 0,0 l/m 0 min 0 min 0 W/m 12,9 km/h (3 Bft) 95,74 %
17.01.2022 19:08 7,1 C 6,7 C 5,6 C 96 % 1036,1 hPa 0,0 l/m 0 min 0 min 0 W/m 6,4 km/h (2 Bft) 97,87 %
17.01.2022 19:10 7,1 C 6,7 C 5,6 C 96 % 1036,2 hPa 0,0 l/m 0 min 0 min 0 W/m 16,1 km/h (3 Bft) 97,83 %
17.01.2022 19:12 7,1 C 6,7 C 5,6 C 96 % 1036,2 hPa 0,0 l/m 0 min 0 min 0 W/m 12,9 km/h (3 Bft) 95,74 %
17.01.2022 19:14 7,1 C 6,7 C 5,6 C 96 % 1036,3 hPa 0,0 l/m 0 min 0 min 0 W/m 9,7 km/h (2 Bft) 97,87 %
17.01.2022 19:16 7,1 C 6,7 C 5,6 C 96 % 1036,2 hPa 0,0 l/m 0 min 0 min 0 W/m 9,7 km/h (2 Bft) 95,74 %
17.01.2022 19:18 7,1 C 6,7 C 5,6 C 96 % 1036,2 hPa 0,0 l/m 0 min 0 min 0 W/m 6,4 km/h (2 Bft) 97,87 %
17.01.2022 19:20 7,1 C 6,7 C 5,6 C 96 % 1036,1 hPa 0,0 l/m 0 min 0 min 0 W/m 12,9 km/h (3 Bft) 97,96 %
17.01.2022 19:22 7,1 C 6,7 C 5,6 C 96 % 1036,1 hPa 0,0 l/m 0 min 0 min 0 W/m 6,4 km/h (2 Bft) 97,96 %
17.01.2022 19:24 7,1 C 6,7 C 5,6 C 96 % 1036,0 hPa 0,0 l/m 0 min 0 min 0 W/m 12,9 km/h (3 Bft) 97,14 %
17.01.2022 19:26 7,1 C 6,7 C 5,6 C 96 % 1036,1 hPa 0,0 l/m 0 min 0 min 0 W/m 9,7 km/h (2 Bft) 98,31 %
17.01.2022 19:28 7,1 C 6,7 C 5,6 C 96 % 1036,1 hPa 0,0 l/m 0 min 0 min 0 W/m 9,7 km/h (2 Bft) 94,29 %
17.01.2022 19:30 7,1 C 6,7 C 5,6 C 96 % 1036,1 hPa 0,0 l/m 0 min 0 min 0 W/m 12,9 km/h (3 Bft) 96,61 %
17.01.2022 19:32 7,1 C 6,7 C 5,6 C 96 % 1036,1 hPa 0,0 l/m 0 min 0 min 0 W/m 12,9 km/h (3 Bft) 97,14 %
17.01.2022 19:34 7,1 C 6,7 C 5,6 C 96 % 1036,1 hPa 0,0 l/m 0 min 0 min 0 W/m 12,9 km/h (3 Bft) 97,87 %
17.01.2022 19:36 7,1 C 6,7 C 5,6 C 96 % 1036,2 hPa 0,0 l/m 0 min 0 min 0 W/m 12,9 km/h (3 Bft) 95,65 %
17.01.2022 19:38 7,1 C 6,1 C 5,6 C 96 % 1036,2 hPa 0,0 l/m 0 min 0 min 0 W/m 6,4 km/h (2 Bft) 95,74 %
17.01.2022 19:40 7,0 C 6,1 C 5,6 C 96 % 1036,1 hPa 0,0 l/m 0 min 0 min 0 W/m 9,7 km/h (2 Bft) 95,74 %
17.01.2022 19:42 7,0 C 6,1 C 5,6 C 96 % 1036,1 hPa 0,0 l/m 0 min 0 min 0 W/m 9,7 km/h (2 Bft) 95,74 %
17.01.2022 19:44 7,0 C 6,1 C 5,6 C 96 % 1036,0 hPa 0,0 l/m 0 min 0 min 0 W/m 3,2 km/h (1 Bft) 94,83 %
17.01.2022 19:46 6,9 C 6,1 C 5,6 C 96 % 1036,1 hPa 0,0 l/m 0 min 0 min 0 W/m 6,4 km/h (2 Bft) 95,74 %
17.01.2022 19:48 6,9 C 6,1 C 5,6 C 96 % 1036,2 hPa 0,0 l/m 0 min 0 min 0 W/m 6,4 km/h (2 Bft) 97,87 %
17.01.2022 19:50 6,9 C 6,1 C 5,6 C 96 % 1036,3 hPa 0,0 l/m 0 min 0 min 0 W/m 6,4 km/h (2 Bft) 95,74 %
17.01.2022 19:52 6,9 C 6,1 C 5,6 C 96 % 1036,3 hPa 0,0 l/m 0 min 0 min 0 W/m 6,4 km/h (2 Bft) 97,87 %
17.01.2022 19:54 6,9 C 6,1 C 5,6 C 96 % 1036,3 hPa 0,0 l/m 0 min 0 min 0 W/m 6,4 km/h (2 Bft) 97,87 %
17.01.2022 19:56 6,9 C 6,1 C 5,6 C 96 % 1036,3 hPa 0,0 l/m 0 min 0 min 0 W/m 6,4 km/h (2 Bft) 97,83 %
17.01.2022 19:58 6,9 C 6,1 C 5,6 C 96 % 1036,3 hPa 0,0 l/m 0 min 0 min 0 W/m 6,4 km/h (2 Bft) 97,87 %
17.01.2022 20:00 6,9 C 6,1 C 5,6 C 96 % 1036,3 hPa 0,0 l/m 0 min 0 min 0 W/m 12,9 km/h (3 Bft) 97,87 %
17.01.2022 20:02 6,9 C 6,1 C 5,6 C 96 % 1036,3 hPa 0,0 l/m 0 min 0 min 0 W/m 6,4 km/h (2 Bft) 95,74 %
17.01.2022 20:04 6,8 C 6,1 C 5,6 C 96 % 1036,3 hPa 0,0 l/m 0 min 0 min 0 W/m 6,4 km/h (2 Bft) 97,87 %
17.01.2022 20:06 6,9 C 6,1 C 5,6 C 96 % 1036,4 hPa 0,0 l/m 0 min 0 min 0 W/m 9,7 km/h (2 Bft) 95,65 %
17.01.2022 20:08 6,8 C 6,1 C 5,6 C 96 % 1036,4 hPa 0,0 l/m 0 min 0 min 0 W/m 6,4 km/h (2 Bft) 97,87 %
17.01.2022 20:10 6,9 C 6,1 C 5,6 C 96 % 1036,4 hPa 0,0 l/m 0 min 0 min 0 W/m 3,2 km/h (1 Bft) 97,87 %
17.01.2022 20:12 6,8 C 6,1 C 5,6 C 96 % 1036,4 hPa 0,0 l/m 0 min 0 min 0 W/m 3,2 km/h (1 Bft) 100,00 %
17.01.2022 20:14 6,8 C 6,1 C 5,6 C 96 % 1036,4 hPa 0,0 l/m 0 min 0 min 0 W/m 6,4 km/h (2 Bft) 100,00 %
17.01.2022 20:16 6,8 C 6,1 C 5,6 C 96 % 1036,5 hPa 0,0 l/m 0 min 0 min 0 W/m 3,2 km/h (1 Bft) 100,00 %
17.01.2022 20:18 6,8 C 6,1 C 5,6 C 96 % 1036,5 hPa 0,0 l/m 0 min 0 min 0 W/m 6,4 km/h (2 Bft) 100,00 %
17.01.2022 20:20 6,7 C 6,1 C 5,0 C 96 % 1036,5 hPa 0,0 l/m 0 min 0 min 0 W/m 6,4 km/h (2 Bft) 100,00 %
17.01.2022 20:22 6,7 C 5,6 C 5,0 C 96 % 1036,6 hPa 0,0 l/m 0 min 0 min 0 W/m 6,4 km/h (2 Bft) 100,00 %
17.01.2022 20:24 6,7 C 5,6 C 5,0 C 96 % 1036,6 hPa 0,0 l/m 0 min 0 min 0 W/m 9,7 km/h (2 Bft) 100,00 %
17.01.2022 20:26 6,6 C 6,1 C 5,0 C 96 % 1036,5 hPa 0,0 l/m 0 min 0 min 0 W/m 6,4 km/h (2 Bft) 100,00 %
17.01.2022 20:28 6,6 C 6,1 C 5,0 C 96 % 1036,5 hPa 0,0 l/m 0 min 0 min 0 W/m 6,4 km/h (2 Bft) 100,00 %
17.01.2022 20:30 6,6 C 5,6 C 5,0 C 96 % 1036,4 hPa 0,0 l/m 0 min 0 min 0 W/m 6,4 km/h (2 Bft) 100,00 %
17.01.2022 20:32 6,6 C 5,6 C 5,0 C 96 % 1036,4 hPa 0,0 l/m 0 min 0 min 0 W/m 9,7 km/h (2 Bft) 100,00 %
17.01.2022 20:34 6,6 C 6,1 C 5,0 C 96 % 1036,5 hPa 0,0 l/m 0 min 0 min 0 W/m 9,7 km/h (2 Bft) 100,00 %
17.01.2022 20:36 6,6 C 6,1 C 5,0 C 96 % 1036,5 hPa 0,0 l/m 0 min 0 min 0 W/m 9,7 km/h (2 Bft) 100,00 %
17.01.2022 20:38 6,6 C 6,1 C 5,0 C 96 % 1036,5 hPa 0,0 l/m 0 min 0 min 0 W/m 9,7 km/h (2 Bft) 100,00 %
17.01.2022 20:40 6,6 C 6,1 C 5,0 C 96 % 1036,5 hPa 0,0 l/m 0 min 0 min 0 W/m 9,7 km/h (2 Bft) 97,87 %
17.01.2022 20:42 6,6 C 6,1 C 5,0 C 96 % 1036,5 hPa 0,0 l/m 0 min 0 min 0 W/m 9,7 km/h (2 Bft) 100,00 %
17.01.2022 20:44 6,6 C 6,1 C 5,0 C 96 % 1036,7 hPa 0,0 l/m 0 min 0 min 0 W/m 6,4 km/h (2 Bft) 100,00 %
17.01.2022 20:46 6,6 C 6,1 C 5,0 C 96 % 1036,8 hPa 0,0 l/m 0 min 0 min 0 W/m 6,4 km/h (2 Bft) 100,00 %
17.01.2022 20:48 6,6 C 6,1 C 5,0 C 96 % 1036,7 hPa 0,0 l/m 0 min 0 min 0 W/m 6,4 km/h (2 Bft) 95,74 %
17.01.2022 20:50 6,6 C 6,1 C 5,0 C 96 % 1036,7 hPa 0,0 l/m 0 min 0 min 0 W/m 6,4 km/h (2 Bft) 100,00 %
17.01.2022 20:52 6,6 C 6,1 C 5,0 C 96 % 1036,8 hPa 0,0 l/m 0 min 0 min 0 W/m 3,2 km/h (1 Bft) 100,00 %
17.01.2022 20:54 6,5 C 5,6 C 5,0 C 96 % 1036,9 hPa 0,0 l/m 0 min 0 min 0 W/m 6,4 km/h (2 Bft) 97,83 %
17.01.2022 20:56 6,5 C 5,6 C 5,0 C 96 % 1037,0 hPa 0,0 l/m 0 min 0 min 0 W/m 3,2 km/h (1 Bft) 100,00 %
17.01.2022 20:58 6,5 C 5,6 C 5,0 C 96 % 1037,0 hPa 0,0 l/m 0 min 0 min 0 W/m 3,2 km/h (1 Bft) 97,87 %
17.01.2022 21:00 6,4 C 5,6 C 4,4 C 96 % 1037,0 hPa 0,0 l/m 0 min 0 min 0 W/m 6,4 km/h (2 Bft) 100,00 %
17.01.2022 21:02 6,4 C 5,6 C 4,4 C 96 % 1036,9 hPa 0,0 l/m 0 min 0 min 0 W/m 9,7 km/h (2 Bft) 97,87 %
17.01.2022 21:04 6,3 C 5,6 C 4,4 C 96 % 1036,9 hPa 0,0 l/m 0 min 0 min 0 W/m 9,7 km/h (2 Bft) 95,74 %
17.01.2022 21:06 6,3 C 5,6 C 4,4 C 96 % 1036,9 hPa 0,0 l/m 0 min 0 min 0 W/m 6,4 km/h (2 Bft) 97,83 %
17.01.2022 21:08 6,3 C 5,6 C 4,4 C 96 % 1037,0 hPa 0,0 l/m 0 min 0 min 0 W/m 9,7 km/h (2 Bft) 97,87 %
17.01.2022 21:10 6,3 C 5,6 C 4,4 C 96 % 1036,9 hPa 0,0 l/m 0 min 0 min 0 W/m 12,9 km/h (3 Bft) 97,87 %
17.01.2022 21:12 6,2 C 5,6 C 4,4 C 96 % 1037,0 hPa 0,0 l/m 0 min 0 min 0 W/m 9,7 km/h (2 Bft) 97,87 %
17.01.2022 21:14 6,2 C 5,6 C 4,4 C 96 % 1037,1 hPa 0,0 l/m 0 min 0 min 0 W/m 9,7 km/h (2 Bft) 97,87 %
17.01.2022 21:16 6,2 C 5,6 C 4,4 C 96 % 1037,2 hPa 0,0 l/m 0 min 0 min 0 W/m 3,2 km/h (1 Bft) 95,74 %
17.01.2022 21:18 6,2 C 5,6 C 4,4 C 96 % 1037,3 hPa 0,0 l/m 0 min 0 min 0 W/m 9,7 km/h (2 Bft) 97,83 %
17.01.2022 21:20 6,2 C 5,6 C 4,4 C 96 % 1037,3 hPa 0,0 l/m 0 min 0 min 0 W/m 6,4 km/h (2 Bft) 97,87 %
17.01.2022 21:22 6,2 C 5,6 C 4,4 C 96 % 1037,2 hPa 0,0 l/m 0 min 0 min 0 W/m 9,7 km/h (2 Bft) 97,87 %
17.01.2022 21:24 6,2 C 5,6 C 4,4 C 96 % 1037,3 hPa 0,0 l/m 0 min 0 min 0 W/m 6,4 km/h (2 Bft) 97,87 %
17.01.2022 21:26 6,1 C 5,6 C 4,4 C 96 % 1037,3 hPa 0,0 l/m 0 min 0 min 0 W/m 6,4 km/h (2 Bft) 97,87 %
17.01.2022 21:28 6,1 C 5,6 C 4,4 C 96 % 1037,2 hPa 0,0 l/m 0 min 0 min 0 W/m 16,1 km/h (3 Bft) 93,62 %
17.01.2022 21:30 6,1 C 5,6 C 4,4 C 96 % 1037,2 hPa 0,0 l/m 0 min 0 min 0 W/m 12,9 km/h (3 Bft) 95,65 %
17.01.2022 21:32 6,1 C 5,6 C 4,4 C 96 % 1037,3 hPa 0,0 l/m 0 min 0 min 0 W/m 6,4 km/h (2 Bft) 95,74 %
17.01.2022 21:34 6,1 C 5,6 C 4,4 C 96 % 1037,4 hPa 0,0 l/m 0 min 0 min 0 W/m 9,7 km/h (2 Bft) 93,62 %
17.01.2022 21:36 6,1 C 5,6 C 4,4 C 96 % 1037,5 hPa 0,0 l/m 0 min 0 min 0 W/m 9,7 km/h (2 Bft) 94,29 %
17.01.2022 21:38 6,1 C 5,6 C 4,4 C 96 % 1037,5 hPa 0,0 l/m 0 min 0 min 0 W/m 9,7 km/h (2 Bft) 93,62 %
17.01.2022 21:40 6,1 C 5,6 C 4,4 C 96 % 1037,5 hPa 0,0 l/m 0 min 0 min 0 W/m 3,2 km/h (1 Bft) 91,49 %
17.01.2022 21:42 6,2 C 5,6 C 5,0 C 96 % 1037,4 hPa 0,0 l/m 0 min 0 min 0 W/m 6,4 km/h (2 Bft) 89,36 %
17.01.2022 21:44 6,2 C 5,6 C 5,0 C 96 % 1037,4 hPa 0,0 l/m 0 min 0 min 0 W/m 3,2 km/h (1 Bft) 93,62 %
17.01.2022 21:46 6,2 C 5,6 C 5,0 C 96 % 1037,3 hPa 0,0 l/m 0 min 0 min 0 W/m 3,2 km/h (1 Bft) 93,48 %
17.01.2022 21:48 6,2 C 5,6 C 4,4 C 96 % 1037,3 hPa 0,0 l/m 0 min 0 min 0 W/m 6,4 km/h (2 Bft) 95,74 %
17.01.2022 21:50 6,2 C 5,6 C 4,4 C 96 % 1037,4 hPa 0,0 l/m 0 min 0 min 0 W/m 9,7 km/h (2 Bft) 93,62 %
17.01.2022 21:52 6,2 C 5,6 C 5,0 C 96 % 1037,5 hPa 0,0 l/m 0 min 0 min 0 W/m 3,2 km/h (1 Bft) 93,62 %
17.01.2022 21:54 6,2 C 5,6 C 5,0 C 96 % 1037,5 hPa 0,0 l/m 0 min 0 min 0 W/m 6,4 km/h (2 Bft) 93,62 %
17.01.2022 21:56 6,2 C 5,6 C 5,0 C 96 % 1037,4 hPa 0,0 l/m 0 min 0 min 0 W/m 6,4 km/h (2 Bft) 91,30 %
17.01.2022 21:58 6,2 C 5,6 C 5,0 C 96 % 1037,5 hPa 0,0 l/m 0 min 0 min 0 W/m 9,7 km/h (2 Bft) 92,00 %
17.01.2022 22:00 6,2 C 5,6 C 5,0 C 96 % 1037,5 hPa 0,0 l/m 0 min 0 min 0 W/m 3,2 km/h (1 Bft) 94,00 %
17.01.2022 22:02 6,2 C 5,6 C 5,0 C 97 % 1037,5 hPa 0,0 l/m 0 min 0 min 0 W/m 6,4 km/h (2 Bft) 96,00 %
17.01.2022 22:04 6,2 C 5,6 C 5,0 C 97 % 1037,6 hPa 0,0 l/m 0 min 0 min 0 W/m 3,2 km/h (1 Bft) 100,00 %
17.01.2022 22:06 6,3 C 5,6 C 5,0 C 97 % 1037,5 hPa 0,0 l/m 0 min 0 min 0 W/m 3,2 km/h (1 Bft) 96,15 %
17.01.2022 22:08 6,3 C 5,6 C 5,0 C 97 % 1037,6 hPa 0,0 l/m 0 min 0 min 0 W/m 6,4 km/h (2 Bft) 98,00 %
17.01.2022 22:10 6,3 C 5,6 C 5,0 C 97 % 1037,5 hPa 0,0 l/m 0 min 0 min 0 W/m 3,2 km/h (1 Bft) 94,74 %
17.01.2022 22:12 6,3 C 5,6 C 5,0 C 97 % 1037,6 hPa 0,0 l/m 0 min 0 min 0 W/m 3,2 km/h (1 Bft) 97,87 %
17.01.2022 22:14 6,3 C 5,6 C 5,0 C 97 % 1037,6 hPa 0,0 l/m 0 min 0 min 0 W/m 6,4 km/h (2 Bft) 78,57 %
17.01.2022 22:16 6,3 C 5,6 C 5,0 C 97 % 1037,5 hPa 0,0 l/m 0 min 0 min 0 W/m 6,4 km/h (2 Bft) 72,73 %
17.01.2022 22:18 6,3 C 5,6 C 5,0 C 97 % 1037,5 hPa 0,0 l/m 0 min 0 min 0 W/m 6,4 km/h (2 Bft) 100,00 %
17.01.2022 22:20 6,3 C 5,6 C 5,0 C 97 % 1037,6 hPa 0,0 l/m 0 min 0 min 0 W/m 3,2 km/h (1 Bft) 100,00 %
17.01.2022 22:22 6,3 C 5,6 C 5,0 C 97 % 1037,6 hPa 0,0 l/m 0 min 0 min 0 W/m 3,2 km/h (1 Bft) 100,00 %
17.01.2022 22:24 6,3 C 5,6 C 5,0 C 97 % 1037,6 hPa 0,0 l/m 0 min 0 min 0 W/m 3,2 km/h (1 Bft) 100,00 %
17.01.2022 22:26 6,3 C 5,6 C 5,0 C 97 % 1037,6 hPa 0,0 l/m 0 min 0 min 0 W/m 3,2 km/h (1 Bft) 100,00 %
17.01.2022 22:28 6,3 C 5,6 C 4,4 C 97 % 1037,6 hPa 0,0 l/m 0 min 0 min 0 W/m 3,2 km/h (1 Bft) 100,00 %
17.01.2022 22:30 6,3 C 5,6 C 5,0 C 97 % 1037,5 hPa 0,0 l/m 0 min 0 min 0 W/m 3,2 km/h (1 Bft) 100,00 %
17.01.2022 22:32 6,3 C 5,6 C 5,0 C 97 % 1037,5 hPa 0,0 l/m 0 min 0 min 0 W/m 3,2 km/h (1 Bft) 100,00 %
17.01.2022 22:34 6,2 C 5,6 C 5,0 C 97 % 1037,5 hPa 0,0 l/m 0 min 0 min 0 W/m 3,2 km/h (1 Bft) 100,00 %
17.01.2022 22:36 6,2 C 5,6 C 4,4 C 97 % 1037,6 hPa 0,0 l/m 0 min 0 min 0 W/m 3,2 km/h (1 Bft) 100,00 %
17.01.2022 22:38 6,2 C 5,6 C 4,4 C 97 % 1037,6 hPa 0,0 l/m 0 min 0 min 0 W/m 3,2 km/h (1 Bft) 100,00 %
17.01.2022 22:40 6,2 C 5,6 C 5,0 C 97 % 1037,6 hPa 0,0 l/m 0 min 0 min 0 W/m 0,0 km/h (0 Bft) 100,00 %
17.01.2022 22:42 6,2 C 5,6 C 5,0 C 97 % 1037,6 hPa 0,0 l/m 0 min 0 min 0 W/m 0,0 km/h (0 Bft) 95,65 %
17.01.2022 22:44 6,2 C 5,6 C 5,0 C 97 % 1037,6 hPa 0,0 l/m 0 min 0 min 0 W/m 3,2 km/h (1 Bft) 100,00 %
17.01.2022 22:46 6,2 C 5,6 C 5,0 C 97 % 1037,6 hPa 0,0 l/m 0 min 0 min 0 W/m 3,2 km/h (1 Bft) 100,00 %
17.01.2022 22:48 6,2 C 5,6 C 5,0 C 97 % 1037,6 hPa 0,0 l/m 0 min 0 min 0 W/m 3,2 km/h (1 Bft) 100,00 %
17.01.2022 22:50 6,2 C 5,6 C 5,0 C 97 % 1037,6 hPa 0,0 l/m 0 min 0 min 0 W/m 6,4 km/h (2 Bft) 97,87 %
17.01.2022 22:52 6,2 C 5,6 C 5,0 C 97 % 1037,6 hPa 0,0 l/m 0 min 0 min 0 W/m 6,4 km/h (2 Bft) 100,00 %
17.01.2022 22:54 6,2 C 5,6 C 5,0 C 97 % 1037,5 hPa 0,0 l/m 0 min 0 min 0 W/m 3,2 km/h (1 Bft) 100,00 %
17.01.2022 22:56 6,2 C 5,6 C 5,0 C 97 % 1037,5 hPa 0,0 l/m 0 min 0 min 0 W/m 3,2 km/h (1 Bft) 100,00 %
17.01.2022 22:58 6,2 C 5,6 C 5,0 C 97 % 1037,5 hPa 0,0 l/m 0 min 0 min 0 W/m 6,4 km/h (2 Bft) 100,00 %
17.01.2022 23:00 6,2 C 5,6 C 5,0 C 97 % 1037,5 hPa 0,0 l/m 0 min 0 min 0 W/m 6,4 km/h (2 Bft) 98,00 %
17.01.2022 23:02 6,2 C 5,6 C 5,0 C 97 % 1037,5 hPa 0,0 l/m 0 min 0 min 0 W/m 9,7 km/h (2 Bft) 100,00 %
17.01.2022 23:04 6,2 C 5,6 C 5,0 C 97 % 1037,5 hPa 0,0 l/m 0 min 0 min 0 W/m 6,4 km/h (2 Bft) 100,00 %
17.01.2022 23:06 6,2 C 5,6 C 5,0 C 97 % 1037,4 hPa 0,0 l/m 0 min 0 min 0 W/m 6,4 km/h (2 Bft) 100,00 %
17.01.2022 23:08 6,2 C 5,6 C 5,0 C 97 % 1037,4 hPa 0,0 l/m 0 min 0 min 0 W/m 9,7 km/h (2 Bft) 100,00 %
17.01.2022 23:10 6,2 C 5,6 C 5,0 C 97 % 1037,4 hPa 0,0 l/m 0 min 0 min 0 W/m 12,9 km/h (3 Bft) 100,00 %
17.01.2022 23:12 6,3 C 5,6 C 5,0 C 97 % 1037,4 hPa 0,0 l/m 0 min 0 min 0 W/m 12,9 km/h (3 Bft) 100,00 %
17.01.2022 23:14 6,3 C 6,1 C 5,0 C 97 % 1037,5 hPa 0,0 l/m 0 min 0 min 0 W/m 6,4 km/h (2 Bft) 100,00 %
17.01.2022 23:16 6,3 C 6,1 C 5,0 C 97 % 1037,5 hPa 0,0 l/m 0 min 0 min 0 W/m 9,7 km/h (2 Bft) 98,21 %
17.01.2022 23:18 6,3 C 6,1 C 5,0 C 97 % 1037,5 hPa 0,0 l/m 0 min 0 min 0 W/m 16,1 km/h (3 Bft) 100,00 %
17.01.2022 23:20 6,3 C 6,1 C 5,0 C 97 % 1037,5 hPa 0,0 l/m 0 min 0 min 0 W/m 16,1 km/h (3 Bft) 98,00 %
17.01.2022 23:22 6,3 C 6,1 C 5,0 C 97 % 1037,5 hPa 0,0 l/m 0 min 0 min 0 W/m 9,7 km/h (2 Bft) 97,14 %
17.01.2022 23:24 6,3 C 6,1 C 5,0 C 97 % 1037,4 hPa 0,0 l/m 0 min 0 min 0 W/m 6,4 km/h (2 Bft) 98,18 %
17.01.2022 23:26 6,3 C 6,1 C 5,0 C 97 % 1037,4 hPa 0,0 l/m 0 min 0 min 0 W/m 6,4 km/h (2 Bft) 80,00 %
17.01.2022 23:28 6,4 C 6,1 C 5,0 C 97 % 1037,5 hPa 0,0 l/m 0 min 0 min 0 W/m 9,7 km/h (2 Bft) 72,09 %
17.01.2022 23:30 6,4 C 6,1 C 5,0 C 97 % 1037,5 hPa 0,0 l/m 0 min 0 min 0 W/m 3,2 km/h (1 Bft) 97,14 %
17.01.2022 23:32 6,4 C 6,1 C 5,0 C 97 % 1037,5 hPa 0,0 l/m 0 min 0 min 0 W/m 6,4 km/h (2 Bft) 98,18 %
17.01.2022 23:34 6,4 C 6,1 C 5,0 C 97 % 1037,4 hPa 0,0 l/m 0 min 0 min 0 W/m 3,2 km/h (1 Bft) 98,00 %
17.01.2022 23:36 6,4 C 6,1 C 5,0 C 97 % 1037,5 hPa 0,0 l/m 0 min 0 min 0 W/m 6,4 km/h (2 Bft) 97,92 %
17.01.2022 23:38 6,4 C 6,1 C 5,0 C 97 % 1037,4 hPa 0,0 l/m 0 min 0 min 0 W/m 6,4 km/h (2 Bft) 97,14 %
17.01.2022 23:40 6,4 C 6,1 C 5,0 C 97 % 1037,4 hPa 0,0 l/m 0 min 0 min 0 W/m 6,4 km/h (2 Bft) 98,15 %
17.01.2022 23:42 6,4 C 6,1 C 5,0 C 97 % 1037,4 hPa 0,0 l/m 0 min 0 min 0 W/m 6,4 km/h (2 Bft) 96,00 %
17.01.2022 23:44 6,4 C 6,1 C 5,0 C 97 % 1037,4 hPa 0,0 l/m 0 min 0 min 0 W/m 3,2 km/h (1 Bft) 95,83 %
17.01.2022 23:46 6,4 C 5,6 C 5,0 C 97 % 1037,4 hPa 0,0 l/m 0 min 0 min 0 W/m 6,4 km/h (2 Bft) 94,29 %
17.01.2022 23:48 6,4 C 5,6 C 5,0 C 97 % 1037,5 hPa 0,0 l/m 0 min 0 min 0 W/m 3,2 km/h (1 Bft) 98,18 %
17.01.2022 23:50 6,4 C 5,6 C 5,0 C 97 % 1037,4 hPa 0,0 l/m 0 min 0 min 0 W/m 6,4 km/h (2 Bft) 95,92 %
17.01.2022 23:52 6,4 C 5,6 C 5,0 C 97 % 1037,4 hPa 0,0 l/m 0 min 0 min 0 W/m 3,2 km/h (1 Bft) 100,00 %
17.01.2022 23:54 6,4 C 5,6 C 5,0 C 97 % 1037,4 hPa 0,0 l/m 0 min 0 min 0 W/m 3,2 km/h (1 Bft) 97,14 %
17.01.2022 23:56 6,4 C 5,6 C 5,0 C 97 % 1037,4 hPa 0,0 l/m 0 min 0 min 0 W/m 3,2 km/h (1 Bft) 98,18 %
17.01.2022 23:58 6,4 C 5,6 C 5,0 C 97 % 1037,3 hPa 0,0 l/m 0 min 0 min 0 W/m 0,0 km/h (0 Bft) 100,00 %
_ Min-Zeit 00:14 06:30 00:00 11:32 00:00 - - - - 22:40 04:24
Minimum _ 4,3 C 3,3 C 3,3 C 96 % 1030,5 hPa - - - - 0,0 km/h (0 Bft) 47,37 %
_ Max-Zeit 18:44 15:56 15:56 00:00 22:04 00:14 10:02 00:06 10:06 11:00 00:02
Maximum _ 7,1 C 6,7 C 6,1 C 99 % 1037,6 hPa 0,2 l/m 2 min 2 min 140 W/m 29,0 km/h
S (5 Bft)
100,00 %
Durchschnitt _ 5,7 C 5,2 C 4,7 C 98 % 1033,7 hPa #0,6 l/m #8 min. #1:00 h 45 W/m 11,1 km/h (2 Bft) 97,13 %
© 2022 W. Hausmann